KJ6MC Weather Reports


time (UTC)temp
F
wind
direction
speed
knots
gust
knots
rain 1hr
in
rain 24hr
in
rain mn
in
humidity
%
barometer
mb
20260509170927 71 161 0.9 3.5 0.00 0.00 0.00 69 1013.8
20260509170822 71 228 0.9 3.5 0.00 0.00 0.00 69 1013.8
20260509170726 70 223 1.7 5.2 0.00 0.00 0.00 69 1013.8
20260509170625 70 222 1.7 5.2 0.00 0.00 0.00 68 1013.8
20260509170523 70 226 1.7 5.2 0.00 0.00 0.00 70 1013.8
20260509170422 70 149 1.7 5.2 0.00 0.00 0.00 70 1013.8
20260509170324 70 210 1.7 5.2 0.00 0.00 0.00 70 1013.8
20260509170221 70 210 1.7 5.2 0.00 0.00 0.00 70 1013.9
20260509170118 69 246 1.7 5.2 0.00 0.00 0.00 70 1013.9
20260509170037 69 236 1.7 5.2 0.00 0.00 0.00 69 1013.9
20260509170013 69 148 1.7 5.2 0.00 0.00 0.00 70 1013.9
20260509165934 69 217 1.7 5.2 0.00 0.00 0.00 70 1013.9
20260509165813 69 236 1.7 5.2 0.00 0.00 0.00 69 1013.9
20260509165712 70 239 1.7 5.2 0.00 0.00 0.00 69 1013.9
20260509165613 69 233 1.7 3.5 0.00 0.00 0.00 69 1013.9
20260509165508 69 110 1.7 3.5 0.00 0.00 0.00 69 1013.8
20260509165407 69 132 0.9 3.5 0.00 0.00 0.00 70 1013.9
20260509165319 69 221 0.9 3.5 0.00 0.00 0.00 70 1013.9
20260509165307 69 221 0.9 3.5 0.00 0.00 0.00 69 1013.9
20260509165207 69 183 0.9 3.5 0.00 0.00 0.00 70 1013.9
20260509165106 69 210 0.9 3.5 0.00 0.00 0.00 69 1013.9
20260509165002 69 245 0.9 3.5 0.00 0.00 0.00 70 1013.9
20260509164902 69 217 0.9 2.6 0.00 0.00 0.00 70 1014.0
20260509164818 69 134 0.9 2.6 0.00 0.00 0.00 70 1014.0
20260509164803 69 156 0.9 2.6 0.00 0.00 0.00 70 1014.0
20260509164702 69 210 0.9 3.5 0.00 0.00 0.00 70 1014.0
20260509164600 69 238 0.9 6.1 0.00 0.00 0.00 71 1014.0
20260509164501 69 238 0.9 7.0 0.00 0.00 0.00 71 1014.0
20260509164358 69 238 0.9 7.0 0.00 0.00 0.00 71 1013.9
20260509164318 69 236 0.9 7.0 0.00 0.00 0.00 72 1014.0
20260509164258 69 236 0.9 7.0 0.00 0.00 0.00 72 1014.0
20260509164157 68 237 0.9 7.0 0.00 0.00 0.00 72 1013.9
20260509164055 68 236 0.9 7.0 0.00 0.00 0.00 72 1013.9
20260509163950 68 236 1.7 7.0 0.00 0.00 0.00 71 1013.9
20260509163849 68 233 1.7 7.0 0.00 0.00 0.00 71 1013.9
20260509163817 68 236 0.9 7.0 0.00 0.00 0.00 71 1014.0
20260509163748 68 214 0.9 7.0 0.00 0.00 0.00 71 1014.0
20260509163648 68 240 0.9 7.0 0.00 0.00 0.00 71 1014.0
20260509163548 68 243 0.0 2.6 0.00 0.00 0.00 72 1013.9
20260509163443 68 256 0.0 2.6 0.00 0.00 0.00 72 1014.0
20260509163318 68 207 0.9 6.1 0.00 0.00 0.00 72 1014.0
20260509163243 68 207 0.9 6.1 0.00 0.00 0.00 73 1014.0
20260509163142 67 226 1.7 6.1 0.00 0.00 0.00 73 1014.0
20260509163042 67 171 1.7 6.1 0.00 0.00 0.00 73 1014.0
20260509162941 67 232 1.7 6.1 0.00 0.00 0.00 73 1014.0
20260509162840 67 232 1.7 6.1 0.00 0.00 0.00 73 1014.0
20260509162817 67 232 1.7 6.1 0.00 0.00 0.00 74 1014.0
20260509162741 67 232 1.7 6.1 0.00 0.00 0.00 74 1014.0
20260509162639 66 232 1.7 6.1 0.00 0.00 0.00 74 1014.0
20260509162537 66 208 1.7 6.1 0.00 0.00 0.00 74 1014.0
20260509162435 66 208 1.7 6.1 0.00 0.00 0.00 73 1014.0
20260509162335 66 226 1.7 4.3 0.00 0.00 0.00 74 1014.0
20260509162314 66 238 1.7 4.3 0.00 0.00 0.00 74 1014.0
20260509162234 66 242 0.9 4.3 0.00 0.00 0.00 74 1014.0
20260509162132 66 212 0.9 4.3 0.00 0.00 0.00 74 1014.0
20260509162030 66 224 0.9 4.3 0.00 0.00 0.00 73 1014.1
20260509161929 66 229 0.9 4.3 0.00 0.00 0.00 73 1014.1
20260509161828 66 259 0.9 4.3 0.00 0.00 0.00 74 1014.0
20260509161814 66 249 0.9 4.3 0.00 0.00 0.00 75 1014.0
20260509161728 66 170 0.9 4.3 0.00 0.00 0.00 75 1014.0
20260509161626 66 207 0.9 4.3 0.00 0.00 0.00 75 1014.0
20260509161535 65 228 0.9 4.3 0.00 0.00 0.00 75 1014.1
20260509161524 66 315 0.9 4.3 0.00 0.00 0.00 75 1014.1
20260509161433 65 150 0.9 4.3 0.00 0.00 0.00 75 1014.1
20260509161425 65 228 0.9 4.3 0.00 0.00 0.00 75 1014.1
20260509161222 65 221 1.7 4.3 0.00 0.00 0.00 75 1014.1
20260509161121 65 139 1.7 4.3 0.00 0.00 0.00 76 1014.0
20260509161018 65 150 1.7 5.2 0.00 0.00 0.00 76 1014.0
20260509160916 65 211 1.7 5.2 0.00 0.00 0.00 76 1014.0
20260509160818 65 224 1.7 5.2 0.00 0.00 0.00 77 1014.0
20260509160717 64 236 1.7 5.2 0.00 0.00 0.00 77 1014.0
20260509160615 64 228 1.7 5.2 0.00 0.00 0.00 77 1014.1
20260509160512 64 229 1.7 5.2 0.00 0.00 0.00 77 1014.0
20260509160407 64 238 0.9 5.2 0.00 0.00 0.00 76 1014.0
20260509160314 64 235 0.9 5.2 0.00 0.00 0.00 77 1014.1
20260509160307 64 161 0.9 5.2 0.00 0.00 0.00 77 1014.1
20260509160206 64 204 0.9 5.2 0.00 0.00 0.00 76 1014.1
20260509160107 64 245 0.9 5.2 0.00 0.00 0.00 76 1014.1
20260509160006 64 243 0.9 5.2 0.00 0.00 0.00 78 1014.1
20260509155902 64 222 0.9 5.2 0.00 0.00 0.00 78 1014.1
20260509155815 64 223 1.7 6.1 0.00 0.00 0.00 79 1014.0
20260509155801 64 236 1.7 6.1 0.00 0.00 0.00 79 1014.0
20260509155701 63 236 1.7 6.1 0.00 0.00 0.00 79 1014.0
20260509155601 63 236 2.6 6.1 0.00 0.00 0.00 80 1014.0
20260509155458 63 185 2.6 6.1 0.00 0.00 0.00 80 1014.0
20260509155354 62 184 2.6 6.1 0.00 0.00 0.00 80 1014.0
20260509155314 62 219 2.6 6.1 0.00 0.00 0.00 80 1014.0
20260509155255 62 172 2.6 6.1 0.00 0.00 0.00 80 1014.0
20260509155155 62 232 2.6 6.1 0.00 0.00 0.00 80 1014.0
20260509155054 62 222 2.6 6.1 0.00 0.00 0.00 79 1014.1
20260509154952 62 239 2.6 6.1 0.00 0.00 0.00 79 1014.0
20260509154846 62 195 2.6 6.1 0.00 0.00 0.00 79 1014.0
20260509154809 62 250 2.6 6.1 0.00 0.00 0.00 79 1014.0
20260509154746 62 235 2.6 5.2 0.00 0.00 0.00 79 1014.0
20260509154646 62 238 2.6 5.2 0.00 0.00 0.00 79 1014.0
20260509154547 62 146 1.7 5.2 0.00 0.00 0.00 80 1014.0
20260509154446 62 231 1.7 5.2 0.00 0.00 0.00 79 1013.9
20260509154341 62 235 1.7 5.2 0.00 0.00 0.00 80 1013.9
20260509154304 62 162 1.7 5.2 0.00 0.00 0.00 79 1013.9
20260509154241 62 207 1.7 5.2 0.00 0.00 0.00 79 1013.9
20260509154140 62 245 1.7 5.2 0.00 0.00 0.00 79 1013.9
20260509154040 62 229 1.7 5.2 0.00 0.00 0.00 79 1014.0
20260509153941 62 230 2.6 5.2 0.00 0.00 0.00 79 1014.0
20260509153839 62 225 2.6 5.2 0.00 0.00 0.00 79 1014.0
20260509153756 62 238 2.6 5.2 0.00 0.00 0.00 79 1014.0
20260509153738 62 223 2.6 4.3 0.00 0.00 0.00 79 1014.1
20260509153639 62 236 2.6 4.3 0.00 0.00 0.00 80 1014.1
20260509153537 61 148 2.6 4.3 0.00 0.00 0.00 80 1014.0
20260509153434 61 150 2.6 4.3 0.00 0.00 0.00 80 1014.1
20260509153332 61 212 2.6 4.3 0.00 0.00 0.00 80 1014.0
20260509153250 61 159 2.6 4.3 0.00 0.00 0.00 80 1014.0
20260509153233 61 177 2.6 4.3 0.00 0.00 0.00 80 1014.1
20260509153133 61 193 2.6 4.3 0.00 0.00 0.00 81 1014.1
20260509153031 61 233 2.6 4.3 0.00 0.00 0.00 80 1014.0
20260509152928 61 233 2.6 4.3 0.00 0.00 0.00 80 1014.0
20260509152824 61 205 2.6 4.3 0.00 0.00 0.00 79 1014.0
20260509152744 61 230 1.7 4.3 0.00 0.00 0.00 79 1014.0
20260509152725 61 236 1.7 4.3 0.00 0.00 0.00 79 1014.0
20260509152625 61 210 1.7 4.3 0.00 0.00 0.00 79 1014.0
20260509152525 61 194 1.7 4.3 0.00 0.00 0.00 79 1014.0
20260509152502 61 203 1.7 3.5 0.00 0.00 0.00 79 1014.0
20260509152422 61 211 1.7 4.3 0.00 0.00 0.00 79 1014.0
20260509152350 61 233 1.7 3.5 0.00 0.00 0.00 79 1014.0
20260509152218 61 191 1.7 3.5 0.00 0.00 0.00 79 1014.0
20260509152119 61 241 0.9 3.5 0.00 0.00 0.00 79 1014.0
20260509152019 61 219 0.9 3.5 0.00 0.00 0.00 80 1014.0
20260509151916 61 219 0.9 3.5 0.00 0.00 0.00 79 1014.0
20260509151814 61 226 0.9 3.5 0.00 0.00 0.00 80 1014.0
20260509151734 61 193 0.9 2.6 0.00 0.00 0.00 80 1014.0
20260509151714 61 234 0.9 2.6 0.00 0.00 0.00 80 1014.0
20260509151613 61 232 0.9 2.6 0.00 0.00 0.00 80 1014.0
20260509151512 61 224 0.9 2.6 0.00 0.00 0.00 80 1014.0
20260509151410 61 223 0.9 2.6 0.00 0.00 0.00 80 1014.0
20260509151307 61 134 0.9 2.6 0.00 0.00 0.00 81 1014.0
20260509151226 61 134 0.9 2.6 0.00 0.00 0.00 81 1014.0
20260509151204 61 158 0.9 2.6 0.00 0.00 0.00 81 1014.0
20260509151104 61 203 0.9 2.6 0.00 0.00 0.00 81 1014.0
20260509151005 60 139 0.9 2.6 0.00 0.00 0.00 81 1014.0
20260509150904 60 200 1.7 4.3 0.00 0.00 0.00 82 1014.0
20260509150804 60 169 1.7 4.3 0.00 0.00 0.00 82 1014.0
20260509150721 60 135 1.7 4.3 0.00 0.00 0.00 82 1013.9
20260509150702 60 136 1.7 4.3 0.00 0.00 0.00 82 1013.9
20260509150600 60 136 1.7 4.3 0.00 0.00 0.00 82 1013.9
20260509150501 60 219 1.7 4.3 0.00 0.00 0.00 82 1013.9
20260509150358 60 219 1.7 4.3 0.00 0.00 0.00 82 1013.9
20260509150257 60 176 1.7 4.3 0.00 0.00 0.00 82 1013.9
20260509150213 59 231 1.7 4.3 0.00 0.00 0.00 82 1013.9
20260509150157 60 231 1.7 4.3 0.00 0.00 0.00 82 1013.9
20260509150056 60 238 1.7 4.3 0.00 0.00 0.00 82 1013.9
20260509145954 60 151 1.7 4.3 0.00 0.00 0.00 82 1014.0
20260509145932 59 238 1.7 4.3 0.00 0.00 0.00 82 1014.1
20260509145852 60 250 1.7 3.5 0.00 0.00 0.00 82 1014.0
20260509145819 60 233 1.7 3.5 0.00 0.00 0.00 82 1014.0
20260509145647 59 232 1.7 4.3 0.00 0.00 0.00 82 1014.1
20260509145546 59 221 1.7 4.3 0.00 0.00 0.00 83 1014.0
20260509145446 59 221 1.7 4.3 0.00 0.00 0.00 82 1014.0
20260509145346 59 221 1.7 4.3 0.00 0.00 0.00 83 1014.0
20260509145242 59 187 1.7 4.3 0.00 0.00 0.00 83 1014.0
20260509145202 59 226 1.7 4.3 0.00 0.00 0.00 83 1014.0
20260509145140 59 146 1.7 4.3 0.00 0.00 0.00 83 1014.0
20260509145041 59 231 1.7 4.3 0.00 0.00 0.00 82 1014.0
20260509144941 59 240 1.7 4.3 0.00 0.00 0.00 83 1014.1
20260509144840 59 244 1.7 4.3 0.00 0.00 0.00 83 1014.0
20260509144736 59 200 1.7 4.3 0.00 0.00 0.00 82 1014.0
20260509144656 59 200 1.7 4.3 0.00 0.00 0.00 82 1014.0
20260509144635 59 200 1.7 4.3 0.00 0.00 0.00 83 1014.0
20260509144535 59 215 1.7 4.3 0.00 0.00 0.00 83 1014.1
20260509144435 59 232 1.7 4.3 0.00 0.00 0.00 83 1014.1
20260509144334 59 204 1.7 4.3 0.00 0.00 0.00 83 1014.1
20260509144228 59 198 1.7 4.3 0.00 0.00 0.00 83 1014.1
20260509144150 59 190 1.7 4.3 0.00 0.00 0.00 83 1014.1
20260509144129 59 193 1.7 4.3 0.00 0.00 0.00 83 1014.1
20260509144028 59 154 1.7 4.3 0.00 0.00 0.00 83 1014.1
20260509143928 59 150 0.9 4.3 0.00 0.00 0.00 83 1014.1
20260509143832 59 200 0.9 4.3 0.00 0.00 0.00 83 1014.1
20260509143728 58 228 0.9 4.3 0.00 0.00 0.00 84 1014.1
20260509143643 58 172 0.9 4.3 0.00 0.00 0.00 84 1014.1
20260509143627 58 165 0.9 4.3 0.00 0.00 0.00 84 1014.1
20260509143424 58 221 1.7 3.5 0.00 0.00 0.00 84 1014.0
20260509143321 58 221 1.7 4.3 0.00 0.00 0.00 84 1014.0
20260509143217 58 203 1.7 5.2 0.00 0.00 0.00 84 1014.0
20260509143137 58 233 1.7 5.2 0.00 0.00 0.00 84 1014.0
20260509143117 58 225 1.7 5.2 0.00 0.00 0.00 85 1014.0
20260509143016 58 154 1.7 5.2 0.00 0.00 0.00 85 1014.0
20260509142916 58 214 1.7 5.2 0.00 0.00 0.00 85 1014.0
20260509142816 58 139 1.7 5.2 0.00 0.00 0.00 85 1014.0
20260509142712 57 158 2.6 5.2 0.00 0.00 0.00 85 1013.9
20260509142633 57 167 2.6 5.2 0.00 0.00 0.00 85 1013.9
20260509142610 57 207 2.6 5.2 0.00 0.00 0.00 85 1013.9
20260509142511 57 211 2.6 5.2 0.00 0.00 0.00 85 1014.0
20260509142411 58 248 1.7 5.2 0.00 0.00 0.00 84 1014.0
20260509142310 58 192 1.7 5.2 0.00 0.00 0.00 84 1013.9
20260509142204 58 222 1.7 4.3 0.00 0.00 0.00 84 1013.9
20260509142127 58 229 1.7 4.3 0.00 0.00 0.00 84 1013.9
20260509142104 58 270 1.7 4.3 0.00 0.00 0.00 85 1013.9
20260509142004 57 146 1.7 3.5 0.00 0.00 0.00 85 1013.9
20260509141905 57 203 1.7 3.5 0.00 0.00 0.00 85 1013.9
20260509141804 57 139 1.7 3.5 0.00 0.00 0.00 85 1013.9
20260509141659 57 201 1.7 3.5 0.00 0.00 0.00 85 1014.0
20260509141621 57 184 1.7 3.5 0.00 0.00 0.00 85 1014.0
20260509141558 57 158 1.7 3.5 0.00 0.00 0.00 85 1014.0
20260509141459 57 222 1.7 3.5 0.00 0.00 0.00 85 1014.0
20260509141359 57 204 1.7 3.5 0.00 0.00 0.00 85 1014.0
20260509141258 57 211 1.7 3.5 0.00 0.00 0.00 85 1013.9
20260509141154 57 210 1.7 3.5 0.00 0.00 0.00 85 1013.9
20260509141114 57 200 1.7 3.5 0.00 0.00 0.00 85 1014.0
20260509141052 57 207 1.7 3.5 0.00 0.00 0.00 85 1014.0
20260509140952 57 200 0.9 3.5 0.00 0.00 0.00 85 1013.9
20260509140853 57 221 0.9 3.5 0.00 0.00 0.00 85 1013.9
20260509140752 57 219 0.9 3.5 0.00 0.00 0.00 85 1013.9
20260509140646 57 211 0.9 3.5 0.00 0.00 0.00 84 1013.9
20260509140608 57 224 0.9 2.6 0.00 0.00 0.00 85 1013.9
20260509140547 57 207 0.9 2.6 0.00 0.00 0.00 85 1013.9
20260509140447 57 186 0.9 2.6 0.00 0.00 0.00 85 1013.9
20260509140346 57 150 0.9 2.6 0.00 0.00 0.00 85 1013.9
20260509140246 57 208 0.9 2.6 0.00 0.00 0.00 85 1013.9
20260509140144 57 134 0.9 2.6 0.00 0.00 0.00 85 1013.9
20260509140107 57 131 0.9 2.6 0.00 0.00 0.00 85 1014.0
20260509140045 57 131 0.9 2.6 0.00 0.00 0.00 85 1013.9
20260509135943 57 231 0.9 2.6 0.00 0.00 0.00 85 1013.9
20260509135842 57 137 0.9 2.6 0.00 0.00 0.00 85 1013.9
20260509135819 57 136 0.9 2.6 0.00 0.00 0.00 86 1013.9
20260509135740 57 118 0.9 2.6 0.00 0.00 0.00 85 1013.9
20260509135706 57 135 0.9 2.6 0.00 0.00 0.00 85 1013.9
20260509135539 57 132 0.9 2.6 0.00 0.00 0.00 86 1013.9
20260509135438 57 139 0.9 1.7 0.00 0.00 0.00 86 1013.9
20260509135336 57 200 0.9 1.7 0.00 0.00 0.00 86 1013.9
20260509135234 57 211 0.9 1.7 0.00 0.00 0.00 87 1013.9
20260509135135 56 212 0.9 1.7 0.00 0.00 0.00 86 1013.8
20260509135051 56 212 0.9 1.7 0.00 0.00 0.00 86 1013.8
20260509135032 56 212 0.9 1.7 0.00 0.00 0.00 86 1013.9
20260509134930 56 212 0.9 1.7 0.00 0.00 0.00 86 1013.8
20260509134831 56 212 0.9 1.7 0.00 0.00 0.00 86 1013.8
20260509134728 56 232 0.9 1.7 0.00 0.00 0.00 86 1013.8
20260509134623 56 210 0.9 1.7 0.00 0.00 0.00 86 1013.8
20260509134544 56 163 0.9 1.7 0.00 0.00 0.00 86 1013.7
20260509134523 56 164 0.9 1.7 0.00 0.00 0.00 86 1013.7
20260509134422 56 170 0.9 1.7 0.00 0.00 0.00 86 1013.7
20260509134322 56 210 0.9 1.7 0.00 0.00 0.00 86 1013.8
20260509134222 56 229 0.0 1.7 0.00 0.00 0.00 86 1013.7
20260509134122 56 228 0.0 1.7 0.00 0.00 0.00 87 1013.8
20260509134021 56 165 0.9 1.7 0.00 0.00 0.00 87 1013.8
20260509133920 56 165 0.9 3.5 0.00 0.00 0.00 87 1013.8
20260509133818 56 150 0.9 3.5 0.00 0.00 0.00 87 1013.7
20260509133716 56 210 0.0 3.5 0.00 0.00 0.00 87 1013.7
20260509133531 56 235 0.0 3.5 0.00 0.00 0.00 87 1013.7
20260509133515 56 234 0.0 3.5 0.00 0.00 0.00 87 1013.7
20260509133415 56 235 0.9 3.5 0.00 0.00 0.00 87 1013.7
20260509133313 56 235 0.9 3.5 0.00 0.00 0.00 87 1013.7
20260509133257 55 234 0.9 3.5 0.00 0.00 0.00 87 1013.7
20260509133209 56 235 0.9 3.5 0.00 0.00 0.00 87 1013.7
20260509133151 56 235 0.9 3.5 0.00 0.00 0.00 87 1013.7
20260509133005 55 239 0.9 3.5 0.00 0.00 0.00 87 1013.7
20260509132905 55 239 0.9 3.5 0.00 0.00 0.00 87 1013.6
20260509132804 55 235 0.9 3.5 0.00 0.00 0.00 87 1013.6
20260509132740 55 235 0.9 3.5 0.00 0.00 0.00 87 1013.6
20260509132704 55 235 0.9 3.5 0.00 0.00 0.00 87 1013.6
20260509132631 55 235 0.9 3.5 0.00 0.00 0.00 87 1013.6
20260509132502 55 235 0.9 3.5 0.00 0.00 0.00 87 1013.6
20260509132401 55 230 0.9 3.5 0.00 0.00 0.00 87 1013.6
20260509132300 55 241 0.9 3.5 0.00 0.00 0.00 87 1013.6
20260509132248 55 229 1.7 4.3 0.00 0.00 0.00 87 1013.6
20260509132159 55 242 0.9 3.5 0.00 0.00 0.00 87 1013.6
20260509132137 55 240 0.9 4.3 0.00 0.00 0.00 87 1013.6
20260509131957 55 229 1.7 4.3 0.00 0.00 0.00 87 1013.6
20260509131854 55 140 1.7 4.3 0.00 0.00 0.00 87 1013.5
20260509131754 55 229 1.7 4.3 0.00 0.00 0.00 87 1013.6
20260509131736 55 210 1.7 5.2 0.00 0.00 0.00 87 1013.5
20260509131654 55 221 1.7 4.3 0.00 0.00 0.00 87 1013.5
20260509131622 55 223 1.7 5.2 0.00 0.00 0.00 87 1013.5
20260509131447 55 186 1.7 5.2 0.00 0.00 0.00 87 1013.5
20260509131347 55 237 1.7 5.2 0.00 0.00 0.00 87 1013.5
20260509131244 55 248 1.7 5.2 0.00 0.00 0.00 87 1013.5
20260509131142 55 256 1.7 5.2 0.00 0.00 0.00 87 1013.5
20260509131036 55 241 1.7 5.2 0.00 0.00 0.00 87 1013.5
20260509130958 55 233 1.7 5.2 0.00 0.00 0.00 87 1013.5
20260509130942 56 238 1.7 6.1 0.00 0.00 0.00 86 1013.5
20260509130937 56 219 1.7 5.2 0.00 0.00 0.00 87 1013.5
20260509130836 55 236 1.7 5.2 0.00 0.00 0.00 87 1013.5
20260509130823 55 228 1.7 5.2 0.00 0.00 0.00 87 1013.5
20260509130637 55 210 1.7 5.2 0.00 0.00 0.00 87 1013.5
20260509130601 56 243 1.7 6.1 0.00 0.00 0.00 86 1013.5
20260509130430 56 239 1.7 6.1 0.00 0.00 0.00 86 1013.5
20260509130331 56 225 1.7 6.1 0.00 0.00 0.00 86 1013.5
20260509130234 56 219 1.7 6.1 0.00 0.00 0.00 86 1013.5
20260509130130 56 218 2.6 6.1 0.00 0.00 0.00 86 1013.5
20260509130031 56 229 2.6 6.1 0.00 0.00 0.00 86 1013.5
20260509125928 56 277 2.6 6.1 0.00 0.00 0.00 86 1013.5
20260509125828 56 233 2.6 6.1 0.00 0.00 0.00 86 1013.4
20260509125726 56 238 2.6 6.1 0.00 0.00 0.00 86 1013.4
20260509125624 56 245 2.6 6.1 0.00 0.00 0.00 86 1013.4
20260509125521 56 226 2.6 6.1 0.00 0.00 0.00 86 1013.4
20260509125441 56 243 2.6 5.2 0.00 0.00 0.00 86 1013.4
20260509125420 56 229 2.6 5.2 0.00 0.00 0.00 86 1013.4
20260509125320 56 229 2.6 5.2 0.00 0.00 0.00 86 1013.3
20260509125220 56 230 2.6 5.2 0.00 0.00 0.00 86 1013.4
20260509125118 56 224 2.6 5.2 0.00 0.00 0.00 86 1013.3
20260509125013 56 235 2.6 5.2 0.00 0.00 0.00 86 1013.3
20260509124933 56 230 2.6 5.2 0.00 0.00 0.00 86 1013.4
20260509124912 56 236 2.6 5.2 0.00 0.00 0.00 86 1013.4
20260509124813 56 226 2.6 5.2 0.00 0.00 0.00 86 1013.3
20260509124713 56 235 2.6 5.2 0.00 0.00 0.00 86 1013.3
20260509124612 56 226 2.6 6.1 0.00 0.00 0.00 86 1013.3
20260509124506 56 246 2.6 6.1 0.00 0.00 0.00 86 1013.3
20260509124428 56 198 2.6 6.1 0.00 0.00 0.00 86 1013.4
20260509124407 56 229 2.6 6.1 0.00 0.00 0.00 86 1013.4
20260509124306 56 225 2.6 6.1 0.00 0.00 0.00 85 1013.4
20260509124206 56 229 2.6 6.1 0.00 0.00 0.00 86 1013.3
20260509124106 56 235 2.6 6.1 0.00 0.00 0.00 85 1013.4
20260509124003 56 250 1.7 6.1 0.00 0.00 0.00 86 1013.4
20260509123922 56 231 1.7 6.1 0.00 0.00 0.00 86 1013.3
20260509123901 56 249 1.7 6.1 0.00 0.00 0.00 86 1013.3
20260509123801 56 236 1.7 6.1 0.00 0.00 0.00 86 1013.4
20260509123701 56 229 1.7 5.2 0.00 0.00 0.00 86 1013.4
20260509123600 56 233 1.7 5.2 0.00 0.00 0.00 86 1013.3
20260509123454 56 241 1.7 5.2 0.00 0.00 0.00 85 1013.4
20260509123416 56 218 1.7 4.3 0.00 0.00 0.00 85 1013.3
20260509123354 56 240 1.7 4.3 0.00 0.00 0.00 85 1013.3
20260509123255 56 240 1.7 4.3 0.00 0.00 0.00 85 1013.4
20260509123154 56 223 1.7 4.3 0.00 0.00 0.00 85 1013.3
20260509123054 56 229 1.7 4.3 0.00 0.00 0.00 85 1013.3
20260509122953 56 231 1.7 4.3 0.00 0.00 0.00 85 1013.4
20260509122909 56 238 1.7 4.3 0.00 0.00 0.00 85 1013.4
20260509122852 56 242 1.7 4.3 0.00 0.00 0.00 85 1013.4
20260509122751 56 239 1.7 4.3 0.00 0.00 0.00 86 1013.4
20260509122650 56 214 1.7 4.3 0.00 0.00 0.00 86 1013.4
20260509122622 56 224 1.7 5.2 0.00 0.00 0.00 86 1013.4
20260509122548 56 233 1.7 5.2 0.00 0.00 0.00 86 1013.4
20260509122515 56 228 1.7 5.2 0.00 0.00 0.00 86 1013.4
20260509122342 56 212 1.7 5.2 0.00 0.00 0.00 86 1013.4
20260509122242 56 231 1.7 5.2 0.00 0.00 0.00 86 1013.4
20260509122142 56 233 1.7 5.2 0.00 0.00 0.00 86 1013.4
20260509122042 56 239 1.7 5.2 0.00 0.00 0.00 86 1013.4
20260509121936 56 236 1.7 5.2 0.00 0.00 0.00 86 1013.4
20260509121857 56 218 1.7 5.2 0.00 0.00 0.00 86 1013.4
20260509121836 56 218 1.7 5.2 0.00 0.00 0.00 86 1013.3
20260509121736 56 225 1.7 5.2 0.00 0.00 0.00 86 1013.4
20260509121636 56 257 0.9 5.2 0.00 0.00 0.00 87 1013.4
20260509121536 56 238 0.9 4.3 0.00 0.00 0.00 87 1013.3
20260509121431 56 245 0.9 4.3 0.00 0.00 0.00 87 1013.4
20260509121352 56 229 0.9 4.3 0.00 0.00 0.00 87 1013.4
20260509121330 56 184 0.9 4.3 0.00 0.00 0.00 87 1013.3
20260509121232 56 232 0.9 4.3 0.00 0.00 0.00 87 1013.4
20260509121130 56 271 0.9 4.3 0.00 0.00 0.00 87 1013.4
20260509121031 56 155 0.9 2.6 0.00 0.00 0.00 87 1013.3
20260509120929 56 219 0.9 2.6 0.00 0.00 0.00 87 1013.4
20260509120847 56 218 0.9 2.6 0.00 0.00 0.00 87 1013.4
20260509120830 56 228 0.0 2.6 0.00 0.00 0.00 87 1013.4
20260509120729 56 222 0.0 2.6 0.00 0.00 0.00 87 1013.4
20260509120626 56 214 0.0 1.7 0.00 0.00 0.00 87 1013.4
20260509120525 56 200 0.0 1.7 0.00 0.00 0.00 87 1013.4
20260509120421 56 208 0.0 1.7 0.00 0.00 0.00 87 1013.4
20260509120318 56 212 0.0 1.7 0.00 0.00 0.00 87 1013.4
20260509120219 56 212 0.0 1.7 0.00 0.00 0.00 87 1013.4
20260509120119 56 212 0.0 1.7 0.00 0.00 0.00 87 1013.3
20260509120018 56 212 0.0 1.7 0.00 0.00 0.00 87 1013.4
20260509115918 56 212 0.0 1.7 0.00 0.00 0.00 87 1013.3
20260509115816 56 212 0.0 1.7 0.00 0.00 0.00 87 1013.3
20260509115717 56 212 0.0 1.7 0.00 0.00 0.00 87 1013.4
20260509115615 56 212 0.0 1.7 0.00 0.00 0.00 87 1013.4
20260509115512 56 212 0.0 1.7 0.00 0.00 0.00 87 1013.4
20260509115408 56 212 0.0 1.7 0.00 0.00 0.00 87 1013.4
20260509115328 56 212 0.0 1.7 0.00 0.00 0.00 87 1013.4
20260509115308 56 211 0.0 1.7 0.00 0.00 0.00 87 1013.4
20260509115208 56 211 0.0 1.7 0.00 0.00 0.00 87 1013.4
20260509115109 56 233 0.9 1.7 0.00 0.00 0.00 87 1013.4
20260509115006 56 233 0.9 1.7 0.00 0.00 0.00 87 1013.4
20260509114902 56 233 0.9 1.7 0.00 0.00 0.00 87 1013.4
20260509114827 56 233 0.9 1.7 0.00 0.00 0.00 87 1013.3
20260509114800 56 233 0.9 1.7 0.00 0.00 0.00 87 1013.3
20260509114701 56 233 0.9 1.7 0.00 0.00 0.00 87 1013.4
20260509114601 56 233 0.9 1.7 0.00 0.00 0.00 87 1013.4
20260509114545 56 238 0.9 1.7 0.00 0.00 0.00 87 1013.3
20260509114500 56 233 0.9 1.7 0.00 0.00 0.00 87 1013.4
20260509114428 56 233 0.9 1.7 0.00 0.00 0.00 87 1013.4
20260509114259 56 236 0.9 1.7 0.00 0.00 0.00 87 1013.3
20260509114158 56 235 0.0 1.7 0.00 0.00 0.00 87 1013.4
20260509114056 56 235 0.0 1.7 0.00 0.00 0.00 87 1013.3
20260509113954 56 235 0.0 1.7 0.00 0.00 0.00 87 1013.4
20260509113853 56 236 0.0 1.7 0.00 0.00 0.00 87 1013.4
20260509113809 56 236 0.0 1.7 0.00 0.00 0.00 87 1013.4
20260509113752 56 236 0.0 1.7 0.00 0.00 0.00 87 1013.4
20260509113652 56 236 0.0 1.7 0.00 0.00 0.00 87 1013.4
20260509113550 56 238 0.0 1.7 0.00 0.00 0.00 87 1013.4
20260509113448 56 238 0.0 1.7 0.00 0.00 0.00 87 1013.4
20260509113344 56 238 0.0 1.7 0.00 0.00 0.00 87 1013.4
20260509113304 56 238 0.0 1.7 0.00 0.00 0.00 87 1013.4
20260509113242 56 238 0.0 1.7 0.00 0.00 0.00 87 1013.4
20260509113143 56 238 0.0 1.7 0.00 0.00 0.00 88 1013.4
20260509113042 56 238 0.0 1.7 0.00 0.00 0.00 88 1013.4
20260509113022 56 226 0.0 1.7 0.00 0.00 0.00 88 1013.4
20260509112942 56 226 0.0 1.7 0.00 0.00 0.00 88 1013.4
20260509112912 56 226 0.0 1.7 0.00 0.00 0.00 88 1013.4
20260509112737 56 226 0.0 1.7 0.00 0.00 0.00 88 1013.4
20260509112636 56 226 0.0 1.7 0.00 0.00 0.00 88 1013.4
20260509112537 56 226 0.0 1.7 0.00 0.00 0.00 88 1013.4
20260509112436 56 226 0.0 1.7 0.00 0.00 0.00 88 1013.4
20260509112336 55 226 0.0 1.7 0.00 0.00 0.00 88 1013.4
20260509112253 55 226 0.0 1.7 0.00 0.00 0.00 88 1013.4
20260509112237 55 226 0.0 1.7 0.00 0.00 0.00 88 1013.5
20260509112132 55 226 0.0 1.7 0.00 0.00 0.00 88 1013.4
20260509112032 55 226 0.0 1.7 0.00 0.00 0.00 88 1013.4
20260509111931 55 232 0.0 1.7 0.00 0.00 0.00 88 1013.4
20260509111827 55 232 0.0 1.7 0.00 0.00 0.00 88 1013.4
20260509111724 55 232 0.0 1.7 0.00 0.00 0.00 88 1013.4
20260509111624 55 232 0.0 1.7 0.00 0.00 0.00 89 1013.4
20260509111525 55 232 0.0 1.7 0.00 0.00 0.00 89 1013.4
20260509111424 55 232 0.0 1.7 0.00 0.00 0.00 89 1013.4
20260509111321 55 232 0.0 1.7 0.00 0.00 0.00 89 1013.4
20260509111232 55 224 0.0 0.9 0.00 0.00 0.00 88 1013.4
20260509111218 55 232 0.0 1.7 0.00 0.00 0.00 89 1013.4
20260509111124 55 233 0.0 1.7 0.00 0.00 0.00 89 1013.4
20260509111115 55 233 0.0 0.9 0.00 0.00 0.00 88 1013.4
20260509110918 55 223 0.0 0.9 0.00 0.00 0.00 88 1013.4
20260509110848 55 224 0.0 0.9 0.00 0.00 0.00 88 1013.4
20260509110716 55 224 0.0 0.9 0.00 0.00 0.00 88 1013.4
20260509110617 55 224 0.0 0.9 0.00 0.00 0.00 88 1013.4
20260509110514 55 224 0.0 0.9 0.00 0.00 0.00 88 1013.4
20260509110412 55 224 0.0 0.9 0.00 0.00 0.00 88 1013.4
20260509110306 56 224 0.0 0.9 0.00 0.00 0.00 88 1013.4
20260509110232 56 223 0.0 0.9 0.00 0.00 0.00 88 1013.4
20260509110207 56 224 0.0 0.9 0.00 0.00 0.00 88 1013.4
20260509110106 56 224 0.0 0.9 0.00 0.00 0.00 88 1013.4
20260509110006 56 224 0.0 0.9 0.00 0.00 0.00 88 1013.3
20260509105906 56 224 0.0 0.9 0.00 0.00 0.00 88 1013.4
20260509105804 56 224 0.0 0.9 0.00 0.00 0.00 88 1013.3
20260509105722 56 224 0.0 0.9 0.00 0.00 0.00 88 1013.3
20260509105704 56 224 0.0 0.9 0.00 0.00 0.00 88 1013.3
20260509105603 56 223 0.0 0.9 0.00 0.00 0.00 88 1013.3
20260509105503 56 224 0.0 0.9 0.00 0.00 0.00 88 1013.3
20260509105400 56 224 0.0 0.9 0.00 0.00 0.00 88 1013.3
20260509105255 56 224 0.0 0.9 0.00 0.00 0.00 88 1013.3
20260509105215 56 224 0.0 0.9 0.00 0.00 0.00 88 1013.3
20260509105155 56 224 0.0 0.9 0.00 0.00 0.00 88 1013.3
20260509105055 56 224 0.0 0.9 0.00 0.00 0.00 88 1013.3
20260509104954 56 165 0.0 0.9 0.00 0.00 0.00 88 1013.3
20260509104854 56 165 0.0 0.9 0.00 0.00 0.00 88 1013.3
20260509104750 56 165 0.0 0.9 0.00 0.00 0.00 88 1013.3
20260509104711 56 165 0.0 0.9 0.00 0.00 0.00 88 1013.3
20260509104648 56 165 0.0 0.9 0.00 0.00 0.00 88 1013.3
20260509104549 56 165 0.0 0.9 0.00 0.00 0.00 88 1013.3
20260509104448 56 165 0.0 0.9 0.00 0.00 0.00 88 1013.3
20260509104348 56 165 0.0 0.9 0.00 0.00 0.00 88 1013.3
20260509104249 56 207 0.0 0.9 0.00 0.00 0.00 88 1013.3
20260509104203 56 207 0.0 0.9 0.00 0.00 0.00 88 1013.3
20260509104147 56 207 0.0 0.9 0.00 0.00 0.00 88 1013.3
20260509104046 56 207 0.0 0.9 0.00 0.00 0.00 88 1013.3
20260509103944 56 207 0.0 0.9 0.00 0.00 0.00 88 1013.3
20260509103842 56 207 0.0 0.9 0.00 0.00 0.00 88 1013.3
20260509103742 56 207 0.0 0.9 0.00 0.00 0.00 88 1013.3
20260509103640 56 207 0.0 0.9 0.00 0.00 0.00 88 1013.3
20260509103538 56 207 0.0 0.9 0.00 0.00 0.00 88 1013.3
20260509103439 56 207 0.0 0.9 0.00 0.00 0.00 88 1013.3
20260509103336 56 207 0.0 0.9 0.00 0.00 0.00 88 1013.4
20260509103233 56 207 0.0 0.9 0.00 0.00 0.00 88 1013.4
20260509103130 56 207 0.0 0.9 0.00 0.00 0.00 88 1013.4
20260509103031 56 207 0.0 0.9 0.00 0.00 0.00 88 1013.4
20260509102931 56 207 0.0 0.9 0.00 0.00 0.00 88 1013.4
20260509102830 56 207 0.0 0.9 0.00 0.00 0.00 88 1013.4
20260509102730 56 207 0.0 0.9 0.00 0.00 0.00 88 1013.4
20260509102628 56 207 0.0 0.9 0.00 0.00 0.00 88 1013.4
20260509102528 56 207 0.0 0.9 0.00 0.00 0.00 88 1013.3
20260509102427 56 207 0.0 0.9 0.00 0.00 0.00 87 1013.4
20260509102324 56 207 0.0 0.9 0.00 0.00 0.00 87 1013.4
20260509102222 56 207 0.0 0.9 0.00 0.00 0.00 87 1013.3
20260509102140 56 207 0.0 1.7 0.00 0.00 0.00 87 1013.4
20260509102023 56 207 0.0 1.7 0.00 0.00 0.00 87 1013.4
20260509101920 56 207 0.0 1.7 0.00 0.00 0.00 87 1013.4
20260509101823 56 207 0.0 1.7 0.00 0.00 0.00 87 1013.4
20260509101714 56 207 0.0 1.7 0.00 0.00 0.00 87 1013.4
20260509101613 56 207 0.0 1.7 0.00 0.00 0.00 87 1013.4
20260509101513 56 207 0.0 1.7 0.00 0.00 0.00 87 1013.4
20260509101413 56 207 0.0 1.7 0.00 0.00 0.00 87 1013.4
20260509101312 56 207 0.0 1.7 0.00 0.00 0.00 87 1013.4
20260509101208 56 207 0.0 1.7 0.00 0.00 0.00 87 1013.4
20260509101107 56 207 0.0 0.9 0.00 0.00 0.00 87 1013.4
20260509101007 56 207 0.0 0.9 0.00 0.00 0.00 87 1013.4
20260509100906 56 207 0.0 0.9 0.00 0.00 0.00 87 1013.4
20260509100806 56 207 0.0 0.9 0.00 0.00 0.00 87 1013.4
20260509100706 56 207 0.0 0.9 0.00 0.00 0.00 87 1013.4
20260509100621 56 207 0.0 0.9 0.00 0.00 0.00 87 1013.4
20260509100606 56 207 0.0 0.9 0.00 0.00 0.00 87 1013.4
20260509100504 56 207 0.0 1.7 0.00 0.00 0.00 87 1013.4
20260509100402 56 207 0.0 1.7 0.00 0.00 0.00 87 1013.4
20260509100336 56 207 0.9 1.7 0.00 0.00 0.00 87 1013.4
20260509100300 56 207 0.0 1.7 0.00 0.00 0.00 87 1013.4
20260509100228 56 207 0.9 1.7 0.00 0.00 0.00 87 1013.4
20260509100055 56 207 0.9 1.7 0.00 0.00 0.00 87 1013.4
20260509095955 56 207 0.9 1.7 0.00 0.00 0.00 86 1013.4
20260509095854 56 207 0.9 1.7 0.00 0.00 0.00 86 1013.4
20260509095832 56 207 0.9 1.7 0.00 0.00 0.00 86 1013.4
20260509095754 56 207 0.9 1.7 0.00 0.00 0.00 86 1013.4
20260509095720 56 207 0.9 1.7 0.00 0.00 0.00 86 1013.4
20260509095552 56 200 0.9 1.7 0.00 0.00 0.00 86 1013.4
20260509095453 56 200 0.9 1.7 0.00 0.00 0.00 86 1013.4
20260509095351 56 225 0.9 1.7 0.00 0.00 0.00 87 1013.4
20260509095248 56 225 0.0 1.7 0.00 0.00 0.00 87 1013.5
20260509095146 56 217 0.0 1.7 0.00 0.00 0.00 87 1013.5
20260509095104 56 217 0.0 1.7 0.00 0.00 0.00 87 1013.4
20260509095047 56 216 0.0 1.7 0.00 0.00 0.00 87 1013.4
20260509094946 56 217 0.9 1.7 0.00 0.00 0.00 86 1013.5
20260509094844 57 217 0.0 1.7 0.00 0.00 0.00 86 1013.5
20260509094743 57 217 0.0 1.7 0.00 0.00 0.00 86 1013.5
20260509094638 56 176 0.9 1.7 0.00 0.00 0.00 86 1013.5
20260509094536 57 176 0.9 1.7 0.00 0.00 0.00 86 1013.5
20260509094437 57 224 0.9 1.7 0.00 0.00 0.00 86 1013.5
20260509094336 57 224 0.9 1.7 0.00 0.00 0.00 86 1013.5
20260509094236 57 207 0.9 1.7 0.00 0.00 0.00 87 1013.5
20260509094137 57 207 0.9 1.7 0.00 0.00 0.00 86 1013.5
20260509094034 57 207 0.9 1.7 0.00 0.00 0.00 86 1013.5
20260509093934 57 207 0.9 1.7 0.00 0.00 0.00 86 1013.5
20260509093833 57 207 0.9 1.7 0.00 0.00 0.00 87 1013.5
20260509093730 57 207 0.9 1.7 0.00 0.00 0.00 87 1013.5
20260509093628 56 221 0.0 1.7 0.00 0.00 0.00 87 1013.5
20260509093546 57 219 0.0 1.7 0.00 0.00 0.00 87 1013.5
20260509093529 56 221 0.0 1.7 0.00 0.00 0.00 87 1013.5
20260509093429 56 219 0.0 1.7 0.00 0.00 0.00 87 1013.5
20260509093327 56 221 0.0 1.7 0.00 0.00 0.00 87 1013.5
20260509093303 56 136 0.0 0.9 0.00 0.00 0.00 87 1013.6
20260509093224 56 136 0.0 0.9 0.00 0.00 0.00 87 1013.5
20260509093150 56 136 0.0 0.9 0.00 0.00 0.00 87 1013.6
20260509093019 56 136 0.0 0.9 0.00 0.00 0.00 87 1013.6
20260509092919 56 136 0.0 0.9 0.00 0.00 0.00 87 1013.6
20260509092818 56 135 0.0 0.9 0.00 0.00 0.00 87 1013.6
20260509092719 56 136 0.0 0.9 0.00 0.00 0.00 87 1013.5
20260509092617 56 136 0.0 0.9 0.00 0.00 0.00 86 1013.5
20260509092517 56 136 0.0 0.9 0.00 0.00 0.00 86 1013.5
20260509092416 56 136 0.0 0.9 0.00 0.00 0.00 86 1013.5
20260509092315 56 136 0.0 0.9 0.00 0.00 0.00 86 1013.5
20260509092252 57 136 0.0 0.9 0.00 0.00 0.00 86 1013.5
20260509092213 56 136 0.0 0.9 0.00 0.00 0.00 86 1013.5
20260509092138 57 136 0.0 0.9 0.00 0.00 0.00 86 1013.5
20260509092006 57 135 0.0 0.9 0.00 0.00 0.00 86 1013.5
20260509091906 57 136 0.0 0.9 0.00 0.00 0.00 86 1013.5
20260509091807 57 135 0.0 0.9 0.00 0.00 0.00 86 1013.5
20260509091706 57 136 0.0 0.9 0.00 0.00 0.00 86 1013.5
20260509091601 57 136 0.0 0.9 0.00 0.00 0.00 86 1013.5
20260509091522 57 136 0.0 0.9 0.00 0.00 0.00 86 1013.5
20260509091500 57 136 0.0 0.9 0.00 0.00 0.00 86 1013.5
20260509091401 57 136 0.0 0.9 0.00 0.00 0.00 86 1013.5
20260509091301 57 136 0.0 0.9 0.00 0.00 0.00 86 1013.5
20260509091200 57 136 0.0 0.9 0.00 0.00 0.00 86 1013.5
20260509091056 57 135 0.0 0.9 0.00 0.00 0.00 86 1013.5
20260509091016 57 136 0.0 0.9 0.00 0.00 0.00 86 1013.5
20260509090955 57 136 0.0 0.9 0.00 0.00 0.00 86 1013.5
20260509090854 57 135 0.0 0.9 0.00 0.00 0.00 86 1013.5
20260509090754 57 135 0.0 0.9 0.00 0.00 0.00 85 1013.6
20260509090740 57 136 0.0 0.9 0.00 0.00 0.00 86 1013.5
20260509090654 57 136 0.0 0.9 0.00 0.00 0.00 86 1013.6
20260509090620 57 136 0.0 0.9 0.00 0.00 0.00 86 1013.5
20260509090449 57 136 0.0 0.9 0.00 0.00 0.00 86 1013.5
20260509090348 57 135 0.0 0.9 0.00 0.00 0.00 85 1013.5
20260509090248 57 135 0.0 0.9 0.00 0.00 0.00 85 1013.5
20260509090148 57 135 0.0 0.9 0.00 0.00 0.00 85 1013.5
20260509090045 57 136 0.0 0.9 0.00 0.00 0.00 85 1013.5
20260509090004 57 135 0.0 0.9 0.00 0.00 0.00 85 1013.5
20260509085942 57 136 0.0 0.9 0.00 0.00 0.00 85 1013.5
20260509085843 57 135 0.0 0.0 0.00 0.00 0.00 85 1013.5
20260509085742 57 136 0.0 0.0 0.00 0.00 0.00 85 1013.5
20260509085643 57 135 0.0 0.0 0.00 0.00 0.00 85 1013.5
20260509085536 57 136 0.0 0.0 0.00 0.00 0.00 85 1013.5
20260509085458 57 136 0.0 0.0 0.00 0.00 0.00 85 1013.5
20260509085437 57 136 0.0 0.9 0.00 0.00 0.00 85 1013.5
20260509085336 57 136 0.0 0.9 0.00 0.00 0.00 85 1013.6
20260509085237 57 136 0.0 0.9 0.00 0.00 0.00 85 1013.6
20260509085136 57 136 0.0 0.9 0.00 0.00 0.00 85 1013.6
20260509085036 57 136 0.0 0.9 0.00 0.00 0.00 85 1013.6
20260509084934 57 136 0.0 0.9 0.00 0.00 0.00 85 1013.6
20260509084835 57 136 0.0 0.9 0.00 0.00 0.00 85 1013.6
20260509084733 57 136 0.0 1.7 0.00 0.00 0.00 85 1013.6
20260509084707 58 136 0.0 1.7 0.00 0.00 0.00 85 1013.6
20260509084630 57 136 0.0 1.7 0.00 0.00 0.00 85 1013.6
20260509084555 57 135 0.0 1.7 0.00 0.00 0.00 85 1013.6
20260509084425 58 136 0.0 1.7 0.00 0.00 0.00 84 1013.6
20260509084325 58 135 0.9 1.7 0.00 0.00 0.00 84 1013.6
20260509084224 58 136 0.9 1.7 0.00 0.00 0.00 84 1013.6
20260509084124 58 136 0.9 1.7 0.00 0.00 0.00 84 1013.6
20260509084024 58 136 0.9 1.7 0.00 0.00 0.00 84 1013.6
20260509083940 58 136 0.9 1.7 0.00 0.00 0.00 84 1013.6
20260509083923 58 135 0.9 1.7 0.00 0.00 0.00 84 1013.6
20260509083821 58 135 0.9 1.7 0.00 0.00 0.00 84 1013.7
20260509083721 58 137 0.9 1.7 0.00 0.00 0.00 84 1013.6
20260509083702 58 136 0.9 1.7 0.00 0.00 0.00 84 1013.6
20260509083619 58 136 0.9 1.7 0.00 0.00 0.00 84 1013.7
20260509083547 58 137 0.9 1.7 0.00 0.00 0.00 84 1013.6
20260509083416 58 137 0.9 1.7 0.00 0.00 0.00 84 1013.6
20260509083317 58 136 0.9 1.7 0.00 0.00 0.00 84 1013.6
20260509083215 58 137 0.9 1.7 0.00 0.00 0.00 84 1013.6
20260509083112 58 136 0.9 1.7 0.00 0.00 0.00 84 1013.6
20260509083006 58 143 0.0 1.7 0.00 0.00 0.00 84 1013.6
20260509082929 58 137 0.0 0.9 0.00 0.00 0.00 84 1013.6
20260509082907 58 136 0.0 0.9 0.00 0.00 0.00 84 1013.6
20260509082810 58 137 0.0 0.9 0.00 0.00 0.00 84 1013.6
20260509082707 58 137 0.9 0.9 0.00 0.00 0.00 84 1013.7
20260509082606 58 137 0.9 0.9 0.00 0.00 0.00 84 1013.7
20260509082502 58 137 0.0 0.9 0.00 0.00 0.00 84 1013.6
20260509082421 58 136 0.0 0.9 0.00 0.00 0.00 84 1013.6
20260509082402 58 137 0.0 0.9 0.00 0.00 0.00 84 1013.6
20260509082306 58 136 0.0 0.9 0.00 0.00 0.00 84 1013.7
20260509082203 58 136 0.0 1.7 0.00 0.00 0.00 84 1013.7
20260509082102 58 137 0.0 2.6 0.00 0.00 0.00 84 1013.7
20260509081959 58 137 0.0 2.6 0.00 0.00 0.00 84 1013.7
20260509081916 58 137 0.0 2.6 0.00 0.00 0.00 84 1013.7
20260509081859 58 136 0.0 2.6 0.00 0.00 0.00 84 1013.7
20260509081758 58 137 0.9 2.6 0.00 0.00 0.00 84 1013.7
20260509081656 58 136 0.9 2.6 0.00 0.00 0.00 84 1013.7
20260509081554 58 138 0.9 2.6 0.00 0.00 0.00 84 1013.8
20260509081449 58 138 0.9 2.6 0.00 0.00 0.00 84 1013.8
20260509081410 58 138 0.9 2.6 0.00 0.00 0.00 84 1013.7
20260509081348 58 138 0.9 2.6 0.00 0.00 0.00 84 1013.7
20260509081248 58 138 0.9 2.6 0.00 0.00 0.00 84 1013.8
20260509081149 58 120 0.9 2.6 0.00 0.00 0.00 84 1013.8
20260509081048 58 119 0.9 2.6 0.00 0.00 0.00 84 1013.8
20260509080944 58 119 0.9 2.6 0.00 0.00 0.00 84 1013.8
20260509080904 58 119 0.9 2.6 0.00 0.00 0.00 84 1013.8
20260509080843 58 119 0.9 2.6 0.00 0.00 0.00 84 1013.8
20260509080742 58 140 0.9 1.7 0.00 0.00 0.00 84 1013.8
20260509080642 58 139 0.0 1.7 0.00 0.00 0.00 84 1013.8
20260509080541 58 133 0.0 1.7 0.00 0.00 0.00 84 1013.8
20260509080439 58 143 0.0 1.7 0.00 0.00 0.00 84 1013.8
20260509080358 58 136 0.0 1.7 0.00 0.00 0.00 84 1013.8
20260509080338 58 137 0.0 1.7 0.00 0.00 0.00 84 1013.8
20260509080239 58 137 0.0 1.7 0.00 0.00 0.00 84 1013.8
20260509080138 58 137 0.0 1.7 0.00 0.00 0.00 84 1013.8
20260509080038 58 136 0.0 1.7 0.00 0.00 0.00 85 1013.8
20260509075932 58 138 0.0 0.0 0.00 0.00 0.00 85 1013.8
20260509075852 58 139 0.0 0.0 0.00 0.00 0.00 85 1013.8
20260509075830 59 138 0.0 0.0 0.00 0.00 0.00 85 1013.9
20260509075731 59 138 0.0 0.9 0.00 0.00 0.00 84 1013.8
20260509075630 59 138 0.0 0.9 0.00 0.00 0.00 84 1013.9
20260509075532 59 139 0.0 1.7 0.00 0.00 0.00 84 1013.9
20260509075424 59 138 0.0 1.7 0.00 0.00 0.00 84 1013.9
20260509075347 59 139 0.0 1.7 0.00 0.00 0.00 84 1013.9
20260509075325 59 138 0.0 1.7 0.00 0.00 0.00 84 1013.9
20260509075224 59 139 0.0 1.7 0.00 0.00 0.00 84 1013.9
20260509075125 59 139 0.0 1.7 0.00 0.00 0.00 84 1013.9
20260509075024 59 138 0.0 1.7 0.00 0.00 0.00 84 1013.9
20260509074919 59 138 0.0 1.7 0.00 0.00 0.00 84 1013.9
20260509074819 59 139 0.0 1.7 0.00 0.00 0.00 84 1013.9
20260509074718 59 139 0.0 1.7 0.00 0.00 0.00 84 1013.9
20260509074618 59 138 0.0 1.7 0.00 0.00 0.00 84 1013.9
20260509074518 59 138 0.0 0.9 0.00 0.00 0.00 84 1013.8
20260509074414 59 139 0.0 0.9 0.00 0.00 0.00 84 1013.8
20260509074312 59 139 0.0 0.9 0.00 0.00 0.00 84 1013.8
20260509074212 59 138 0.0 0.9 0.00 0.00 0.00 84 1013.8
20260509074112 59 138 0.0 0.9 0.00 0.00 0.00 84 1013.7
20260509074013 59 139 0.0 0.9 0.00 0.00 0.00 84 1013.8
20260509073906 59 139 0.0 0.9 0.00 0.00 0.00 84 1013.8
20260509073829 59 139 0.0 0.9 0.00 0.00 0.00 83 1013.8
20260509073810 59 138 0.0 0.9 0.00 0.00 0.00 83 1013.8
20260509073706 59 138 0.0 0.9 0.00 0.00 0.00 83 1013.8
20260509073606 59 139 0.0 0.9 0.00 0.00 0.00 83 1013.8
20260509073506 59 138 0.0 0.0 0.00 0.00 0.00 83 1013.8
20260509073406 59 138 0.0 0.0 0.00 0.00 0.00 83 1013.8
20260509073330 59 138 0.0 0.0 0.00 0.00 0.00 83 1013.8
20260509073305 59 138 0.0 0.0 0.00 0.00 0.00 83 1013.8
20260509073205 59 138 0.0 0.0 0.00 0.00 0.00 83 1013.9
20260509073103 59 138 0.0 0.9 0.00 0.00 0.00 83 1013.8
20260509073000 59 139 0.0 0.9 0.00 0.00 0.00 83 1013.8
20260509072856 59 138 0.0 0.9 0.00 0.00 0.00 82 1013.8
20260509072825 59 138 0.0 0.9 0.00 0.00 0.00 82 1013.8
20260509072754 59 138 0.0 0.9 0.00 0.00 0.00 82 1013.8
20260509072655 59 138 0.0 0.9 0.00 0.00 0.00 83 1013.8
20260509072554 59 138 0.0 0.9 0.00 0.00 0.00 83 1013.8
20260509072543 60 139 0.0 0.9 0.00 0.00 0.00 82 1013.7
20260509072454 60 138 0.0 0.9 0.00 0.00 0.00 82 1013.8
20260509072436 60 138 0.0 0.9 0.00 0.00 0.00 82 1013.7
20260509072252 60 139 0.0 0.9 0.00 0.00 0.00 82 1013.7
20260509072150 60 138 0.0 0.9 0.00 0.00 0.00 82 1013.7
20260509072050 60 138 0.0 0.9 0.00 0.00 0.00 82 1013.7
20260509071947 60 138 0.0 0.9 0.00 0.00 0.00 82 1013.7
20260509071824 60 138 0.0 0.9 0.00 0.00 0.00 82 1013.7
20260509071742 60 138 0.0 0.9 0.00 0.00 0.00 82 1013.7
20260509071642 60 139 0.0 0.9 0.00 0.00 0.00 82 1013.6
20260509071542 60 138 0.0 0.9 0.00 0.00 0.00 83 1013.7
20260509071442 60 138 0.0 0.9 0.00 0.00 0.00 83 1013.7
20260509071324 60 138 0.0 0.9 0.00 0.00 0.00 83 1013.7
20260509071237 60 139 0.0 0.9 0.00 0.00 0.00 82 1013.7
20260509071137 60 138 0.0 0.9 0.00 0.00 0.00 82 1013.7
20260509071037 60 139 0.0 0.9 0.00 0.00 0.00 82 1013.6
20260509070936 60 138 0.0 0.9 0.00 0.00 0.00 82 1013.7
20260509070824 60 139 0.0 0.9 0.00 0.00 0.00 82 1013.6
20260509070805 60 124 0.0 0.0 0.00 0.00 0.00 82 1013.6
20260509070734 60 139 0.0 0.9 0.00 0.00 0.00 82 1013.6
20260509070656 60 124 0.0 0.9 0.00 0.00 0.00 82 1013.6
20260509070532 60 124 0.0 0.9 0.00 0.00 0.00 82 1013.6
20260509070443 60 124 0.0 0.9 0.00 0.00 0.00 82 1013.6
20260509070435 60 124 0.0 0.0 0.00 0.00 0.00 82 1013.6
20260509070228 60 124 0.0 0.0 0.00 0.00 0.00 82 1013.6
20260509070128 60 124 0.0 0.9 0.00 0.00 0.00 82 1013.6
20260509070027 60 124 0.0 0.9 0.00 0.00 0.00 82 1013.7
20260509065924 60 124 0.0 0.9 0.00 0.00 0.00 82 1013.7
20260509065825 60 124 0.0 0.9 0.00 0.00 0.00 81 1013.7
20260509065723 60 126 0.0 0.9 0.00 0.00 0.00 81 1013.7
20260509065621 60 124 0.0 0.9 0.00 0.00 0.00 81 1013.7
20260509065521 60 124 0.0 0.9 0.00 0.00 0.00 81 1013.6
20260509065418 61 124 0.0 0.9 0.00 0.00 0.00 81 1013.7
20260509065317 61 124 0.0 0.9 0.00 0.00 0.00 81 1013.6
20260509065214 61 124 0.0 0.9 0.00 0.00 0.00 81 1013.6
20260509065122 61 124 0.0 0.9 0.00 0.00 0.00 81 1013.6
20260509065013 61 117 0.0 0.9 0.00 0.00 0.00 81 1013.7
20260509064910 61 117 0.0 0.9 0.00 0.00 0.00 81 1013.7
20260509064810 61 117 0.0 1.7 0.00 0.00 0.00 80 1013.7
20260509064708 61 117 0.0 1.7 0.00 0.00 0.00 80 1013.7
20260509064606 61 105 0.0 1.7 0.00 0.00 0.00 80 1013.7
20260509064546 61 105 0.0 1.7 0.00 0.00 0.00 80 1013.7
20260509064506 61 105 0.0 1.7 0.00 0.00 0.00 80 1013.6
20260509064434 61 104 0.0 1.7 0.00 0.00 0.00 80 1013.6
20260509064301 61 104 0.0 1.7 0.00 0.00 0.00 80 1013.7
20260509064200 61 105 0.0 1.7 0.00 0.00 0.00 80 1013.7
20260509064101 61 104 0.0 2.6 0.00 0.00 0.00 80 1013.7
20260509064001 61 105 0.9 4.3 0.00 0.00 0.00 79 1013.7
20260509063858 61 96 0.9 4.3 0.00 0.00 0.00 79 1013.7
20260509063820 61 229 0.9 4.3 0.00 0.00 0.00 79 1013.7
20260509063755 61 229 0.9 4.3 0.00 0.00 0.00 79 1013.7
20260509063652 61 229 0.9 4.3 0.00 0.00 0.00 79 1013.7
20260509063555 62 229 0.9 4.3 0.00 0.00 0.00 79 1013.7
20260509063546 62 229 0.9 4.3 0.00 0.00 0.00 79 1013.7
20260509063452 62 230 0.9 4.3 0.00 0.00 0.00 79 1013.7
20260509063429 62 229 0.9 4.3 0.00 0.00 0.00 79 1013.7
20260509063249 62 229 0.9 4.3 0.00 0.00 0.00 79 1013.7
20260509063147 62 229 0.9 4.3 0.00 0.00 0.00 79 1013.7
20260509063047 62 228 0.9 4.3 0.00 0.00 0.00 79 1013.7
20260509062946 62 232 0.9 3.5 0.00 0.00 0.00 79 1013.7
20260509062846 62 219 0.0 3.5 0.00 0.00 0.00 79 1013.7
20260509062820 62 245 0.0 3.5 0.00 0.00 0.00 79 1013.7
20260509062740 62 214 0.0 2.6 0.00 0.00 0.00 79 1013.7
20260509062641 62 217 0.0 2.6 0.00 0.00 0.00 79 1013.7
20260509062541 62 217 0.0 3.5 0.00 0.00 0.00 79 1013.7
20260509062441 62 217 0.0 3.5 0.00 0.00 0.00 79 1013.7
20260509062320 62 217 0.9 3.5 0.00 0.00 0.00 79 1013.6
20260509062241 62 217 0.9 3.5 0.00 0.00 0.00 79 1013.6
20260509062139 62 217 0.9 3.5 0.00 0.00 0.00 79 1013.7
20260509062038 62 217 0.9 3.5 0.00 0.00 0.00 79 1013.6
20260509061938 62 217 0.9 3.5 0.00 0.00 0.00 79 1013.6
20260509061820 62 238 0.9 3.5 0.00 0.00 0.00 79 1013.6
20260509061736 62 195 0.9 3.5 0.00 0.00 0.00 79 1013.7
20260509061631 62 230 0.9 2.6 0.00 0.00 0.00 79 1013.7
20260509061530 62 231 0.9 2.6 0.00 0.00 0.00 79 1013.7
20260509061428 62 231 0.9 2.6 0.00 0.00 0.00 79 1013.7
20260509061317 62 231 0.0 2.6 0.00 0.00 0.00 79 1013.8
20260509061222 62 229 0.0 2.6 0.00 0.00 0.00 79 1013.7
20260509061123 62 239 0.0 2.6 0.00 0.00 0.00 79 1013.7
20260509061023 62 239 0.0 2.6 0.00 0.00 0.00 79 1013.7
20260509060921 62 231 0.0 0.9 0.00 0.00 0.00 79 1013.7
20260509060820 62 230 0.0 0.9 0.00 0.00 0.00 79 1013.7
20260509060715 62 231 0.0 1.7 0.00 0.00 0.00 78 1013.7
20260509060613 62 231 0.0 1.7 0.00 0.00 0.00 78 1013.7
20260509060412 62 230 0.0 1.7 0.00 0.00 0.00 78 1013.7
20260509060312 62 231 0.0 1.7 0.00 0.00 0.00 78 1013.7
20260509060208 62 231 0.0 1.7 0.00 0.00 0.00 78 1013.7
20260509060109 62 231 0.0 1.7 0.00 0.00 0.00 78 1013.7
20260509060008 62 231 0.9 4.3 0.00 0.00 0.00 78 1013.7
20260509055909 63 231 0.9 4.3 0.00 0.00 0.00 78 1013.7
20260509055806 63 231 0.9 4.3 0.00 0.00 0.00 78 1013.7
20260509055702 63 230 0.9 4.3 0.00 0.00 0.00 78 1013.7
20260509055601 63 231 0.9 4.3 0.00 0.00 0.00 78 1013.6
20260509055501 63 231 0.9 4.3 0.00 0.00 0.00 78 1013.6
20260509055401 63 232 0.9 4.3 0.00 0.00 0.00 78 1013.6
20260509055312 63 242 0.9 4.3 0.00 0.00 0.00 77 1013.6
20260509055301 63 242 0.9 4.3 0.00 0.00 0.00 77 1013.6
20260509055201 63 242 0.9 4.3 0.00 0.00 0.00 77 1013.6
20260509055058 63 242 0.9 4.3 0.00 0.00 0.00 77 1013.6
20260509054957 63 238 0.9 4.3 0.00 0.00 0.00 78 1013.6
20260509054856 63 225 0.9 3.5 0.00 0.00 0.00 77 1013.6
20260509054814 63 175 0.9 3.5 0.00 0.00 0.00 78 1013.6
20260509054801 63 214 0.9 4.3 0.00 0.00 0.00 77 1013.6
20260509054754 63 228 0.9 3.5 0.00 0.00 0.00 78 1013.6
20260509054652 63 232 0.9 2.6 0.00 0.00 0.00 77 1013.6
20260509054640 63 232 0.9 2.6 0.00 0.00 0.00 77 1013.6
20260509054454 63 214 0.9 2.6 0.00 0.00 0.00 77 1013.6
20260509054424 63 214 0.9 4.3 0.00 0.00 0.00 77 1013.6
20260509054248 63 214 0.9 4.3 0.00 0.00 0.00 77 1013.6
20260509054142 63 235 0.9 4.3 0.00 0.00 0.00 77 1013.5
20260509054043 63 236 0.9 4.3 0.00 0.00 0.00 77 1013.6
20260509054030 63 236 0.9 4.3 0.00 0.00 0.00 77 1013.5
20260509053948 63 236 0.9 4.3 0.00 0.00 0.00 77 1013.5
20260509053920 63 236 0.9 4.3 0.00 0.00 0.00 77 1013.5
20260509053742 63 232 0.9 4.3 0.00 0.00 0.00 77 1013.5
20260509053637 63 222 0.9 4.3 0.00 0.00 0.00 77 1013.5
20260509053537 63 212 0.9 4.3 0.00 0.00 0.00 77 1013.5
20260509053436 63 206 0.9 4.3 0.00 0.00 0.00 77 1013.5
20260509053308 63 203 0.9 4.3 0.00 0.00 0.00 77 1013.5
20260509053237 63 203 0.9 4.3 0.00 0.00 0.00 77 1013.5
20260509053133 63 321 0.9 4.3 0.00 0.00 0.00 76 1013.5
20260509053031 63 235 0.9 4.3 0.00 0.00 0.00 76 1013.5
20260509052931 63 218 0.9 5.2 0.00 0.00 0.00 76 1013.5
20260509052830 64 240 0.9 5.2 0.00 0.00 0.00 76 1013.5
20260509052808 64 231 0.9 5.2 0.00 0.00 0.00 76 1013.5
20260509052730 64 218 0.9 5.2 0.00 0.00 0.00 76 1013.5
20260509052625 64 219 1.7 5.2 0.00 0.00 0.00 76 1013.5
20260509052524 64 214 1.7 5.2 0.00 0.00 0.00 76 1013.5
20260509052425 64 281 1.7 5.2 0.00 0.00 0.00 76 1013.5
20260509052325 64 214 1.7 7.8 0.00 0.00 0.00 76 1013.4
20260509052311 64 250 1.7 7.8 0.00 0.00 0.00 76 1013.4
20260509052224 64 239 1.7 7.8 0.00 0.00 0.00 76 1013.4
20260509052123 64 232 1.7 7.8 0.00 0.00 0.00 75 1013.5
20260509052032 64 245 1.7 7.8 0.00 0.00 0.00 75 1013.4
20260509052023 64 246 1.7 7.8 0.00 0.00 0.00 75 1013.4
20260509051928 64 270 1.7 7.8 0.00 0.00 0.00 75 1013.4
20260509051919 64 245 1.7 7.8 0.00 0.00 0.00 75 1013.4
20260509051718 64 236 1.7 7.8 0.00 0.00 0.00 75 1013.4
20260509051615 64 298 1.7 7.8 0.00 0.00 0.00 75 1013.4
20260509051513 64 222 1.7 7.8 0.00 0.00 0.00 75 1013.4
20260509051414 64 210 1.7 7.8 0.00 0.00 0.00 75 1013.4
20260509051320 64 242 1.7 5.2 0.00 0.00 0.00 75 1013.4
20260509051309 64 219 1.7 5.2 0.00 0.00 0.00 75 1013.4
20260509051212 64 270 1.7 5.2 0.00 0.00 0.00 75 1013.4
20260509051110 64 239 1.7 5.2 0.00 0.00 0.00 75 1013.3
20260509051010 64 229 1.7 5.2 0.00 0.00 0.00 75 1013.3
20260509050909 64 231 1.7 5.2 0.00 0.00 0.00 75 1013.3
20260509050815 64 224 1.7 5.2 0.00 0.00 0.00 75 1013.4
20260509050808 64 223 1.7 5.2 0.00 0.00 0.00 75 1013.4
20260509050707 64 226 1.7 5.2 0.00 0.00 0.00 75 1013.3
20260509050603 65 250 1.7 5.2 0.00 0.00 0.00 75 1013.3
20260509050503 65 242 1.7 5.2 0.00 0.00 0.00 75 1013.4
20260509050403 65 232 1.7 5.2 0.00 0.00 0.00 75 1013.4
20260509050311 65 262 1.7 5.2 0.00 0.00 0.00 75 1013.4
20260509050302 65 262 1.7 5.2 0.00 0.00 0.00 75 1013.4
20260509050201 65 240 1.7 5.2 0.00 0.00 0.00 75 1013.4
20260509050057 65 257 2.6 8.7 0.00 0.00 0.00 74 1013.4
20260509050034 65 243 2.6 8.7 0.00 0.00 0.00 74 1013.4
20260509045955 65 228 2.6 8.7 0.00 0.00 0.00 74 1013.4
20260509045917 65 250 2.6 8.7 0.00 0.00 0.00 74 1013.4
20260509045759 65 235 2.6 8.7 0.00 0.00 0.00 74 1013.4
20260509045654 65 255 2.6 8.7 0.00 0.00 0.00 74 1013.4
20260509045551 65 229 2.6 8.7 0.00 0.00 0.00 74 1013.4
20260509045449 65 248 2.6 8.7 0.00 0.00 0.00 74 1013.4
20260509045348 65 274 1.7 8.7 0.00 0.00 0.00 74 1013.4
20260509045306 65 250 1.7 8.7 0.00 0.00 0.00 74 1013.4
20260509045248 65 222 1.7 8.7 0.00 0.00 0.00 74 1013.4
20260509045146 65 280 1.7 8.7 0.00 0.00 0.00 74 1013.4
20260509045041 65 236 1.7 7.0 0.00 0.00 0.00 74 1013.4
20260509044941 65 236 2.6 7.0 0.00 0.00 0.00 74 1013.3
20260509044840 65 225 2.6 7.0 0.00 0.00 0.00 74 1013.4
20260509044804 65 232 2.6 7.0 0.00 0.00 0.00 74 1013.4
20260509044751 66 214 1.7 7.0 0.00 0.00 0.00 73 1013.3
20260509044739 65 223 2.6 7.0 0.00 0.00 0.00 74 1013.4
20260509044644 65 259 2.6 7.0 0.00 0.00 0.00 73 1013.4
20260509044635 65 238 2.6 7.0 0.00 0.00 0.00 73 1013.4
20260509044432 66 228 1.7 7.0 0.00 0.00 0.00 73 1013.4
20260509044416 66 269 1.7 7.0 0.00 0.00 0.00 73 1013.3
20260509044234 66 281 1.7 7.0 0.00 0.00 0.00 73 1013.3
20260509044131 66 259 1.7 7.0 0.00 0.00 0.00 73 1013.3
20260509044025 66 252 1.7 7.0 0.00 0.00 0.00 73 1013.4
20260509043925 66 232 1.7 7.0 0.00 0.00 0.00 73 1013.3
20260509043824 66 256 1.7 7.0 0.00 0.00 0.00 73 1013.3
20260509043806 66 263 1.7 7.0 0.00 0.00 0.00 73 1013.3
20260509043725 66 263 0.9 7.0 0.00 0.00 0.00 73 1013.3
20260509043624 66 253 0.9 6.1 0.00 0.00 0.00 73 1013.3
20260509043521 66 210 0.9 6.1 0.00 0.00 0.00 73 1013.3
20260509043419 66 240 0.9 6.1 0.00 0.00 0.00 73 1013.4
20260509043318 66 214 0.9 6.1 0.00 0.00 0.00 73 1013.4
20260509043258 66 226 0.9 6.1 0.00 0.00 0.00 73 1013.4
20260509043218 66 248 0.9 6.1 0.00 0.00 0.00 73 1013.4
20260509043118 66 225 0.9 4.3 0.00 0.00 0.00 73 1013.4
20260509043017 66 262 0.9 4.3 0.00 0.00 0.00 73 1013.4
20260509042916 67 270 0.9 4.3 0.00 0.00 0.00 73 1013.4
20260509042815 67 232 0.9 3.5 0.00 0.00 0.00 73 1013.3
20260509042758 67 233 0.9 2.6 0.00 0.00 0.00 73 1013.3
20260509042715 67 233 0.9 2.6 0.00 0.00 0.00 73 1013.3
20260509042613 67 246 0.9 5.2 0.00 0.00 0.00 73 1013.3
20260509042513 67 228 0.9 5.2 0.00 0.00 0.00 73 1013.3
20260509042411 67 228 0.9 5.2 0.00 0.00 0.00 73 1013.3
20260509042309 67 207 1.7 5.2 0.00 0.00 0.00 73 1013.3
20260509042246 67 250 1.7 5.2 0.00 0.00 0.00 73 1013.3
20260509042209 67 250 1.7 5.2 0.00 0.00 0.00 72 1013.3
20260509042106 67 253 1.7 5.2 0.00 0.00 0.00 72 1013.3
20260509042001 67 230 1.7 7.0 0.00 0.00 0.00 72 1013.3
20260509041901 67 229 1.7 7.0 0.00 0.00 0.00 72 1013.3
20260509041800 67 250 2.6 7.0 0.00 0.00 0.00 72 1013.3
20260509041740 67 262 2.6 7.0 0.00 0.00 0.00 72 1013.2
20260509041701 67 253 2.6 7.0 0.00 0.00 0.00 72 1013.2
20260509041600 67 232 1.7 7.0 0.00 0.00 0.00 72 1013.2
20260509041455 67 232 2.6 7.0 0.00 0.00 0.00 72 1013.2
20260509041354 67 226 1.7 7.0 0.00 0.00 0.00 72 1013.2
20260509041255 67 257 1.7 7.0 0.00 0.00 0.00 72 1013.2
20260509041239 67 212 1.7 7.0 0.00 0.00 0.00 72 1013.2
20260509041154 67 239 1.7 7.0 0.00 0.00 0.00 72 1013.2
20260509041054 67 249 1.7 7.0 0.00 0.00 0.00 72 1013.1
20260509040953 67 233 1.7 5.2 0.00 0.00 0.00 72 1013.1
20260509040852 67 232 1.7 5.2 0.00 0.00 0.00 72 1013.1
20260509040756 68 245 0.9 5.2 0.00 0.00 0.00 72 1013.2
20260509040729 68 228 1.7 5.2 0.00 0.00 0.00 72 1013.1
20260509040651 68 250 1.7 5.2 0.00 0.00 0.00 72 1013.1
20260509040548 68 250 1.7 5.2 0.00 0.00 0.00 72 1013.1
20260509040442 68 214 1.7 5.2 0.00 0.00 0.00 72 1013.1
20260509040342 68 214 1.7 5.2 0.00 0.00 0.00 72 1013.1
20260509040243 68 233 1.7 5.2 0.00 0.00 0.00 71 1013.1
20260509040221 68 281 1.7 5.2 0.00 0.00 0.00 71 1013.1
20260509040143 68 225 1.7 5.2 0.00 0.00 0.00 71 1013.1
20260509040042 68 243 1.7 5.2 0.00 0.00 0.00 71 1013.0
20260509035940 68 229 1.7 4.3 0.00 0.00 0.00 71 1013.1
20260509035841 68 252 1.7 4.3 0.00 0.00 0.00 71 1013.0
20260509035739 68 235 1.7 4.3 0.00 0.00 0.00 71 1012.9
20260509035717 68 252 1.7 6.1 0.00 0.00 0.00 71 1012.9
20260509035639 68 245 1.7 6.1 0.00 0.00 0.00 71 1012.9
20260509035537 68 239 1.7 6.1 0.00 0.00 0.00 71 1013.0
20260509035435 68 229 1.7 6.1 0.00 0.00 0.00 71 1013.0
20260509035333 68 256 1.7 6.1 0.00 0.00 0.00 71 1012.9
20260509035236 68 229 1.7 6.1 0.00 0.00 0.00 71 1013.0
20260509035211 68 235 1.7 6.1 0.00 0.00 0.00 71 1013.0
20260509035132 69 232 2.6 6.1 0.00 0.00 0.00 71 1012.9
20260509035030 69 248 2.6 7.8 0.00 0.00 0.00 71 1012.9
20260509034926 69 239 2.6 7.8 0.00 0.00 0.00 70 1012.9
20260509034827 69 253 2.6 7.8 0.00 0.00 0.00 70 1012.9
20260509034728 69 239 2.6 7.8 0.00 0.00 0.00 70 1012.9
20260509034718 69 250 2.6 7.8 0.00 0.00 0.00 70 1012.9
20260509034627 69 302 2.6 7.8 0.00 0.00 0.00 70 1012.9
20260509034524 69 250 2.6 7.8 0.00 0.00 0.00 70 1012.9
20260509034421 69 235 2.6 7.8 0.00 0.00 0.00 70 1012.9
20260509034318 69 263 2.6 7.8 0.00 0.00 0.00 70 1012.9
20260509034219 69 186 2.6 8.7 0.00 0.00 0.00 70 1012.9
20260509034158 69 197 2.6 8.7 0.00 0.00 0.00 70 1012.9
20260509034118 69 256 2.6 8.7 0.00 0.00 0.00 70 1012.9
20260509034018 69 250 2.6 8.7 0.00 0.00 0.00 70 1012.9
20260509033914 69 228 2.6 8.7 0.00 0.00 0.00 70 1012.9
20260509033815 69 228 3.5 8.7 0.00 0.00 0.00 70 1012.9
20260509033715 69 239 3.5 8.7 0.00 0.00 0.00 70 1012.9
20260509033651 69 239 3.5 8.7 0.00 0.00 0.00 70 1012.9
20260509033615 70 239 3.5 8.7 0.00 0.00 0.00 70 1012.9
20260509033512 70 236 3.5 8.7 0.00 0.00 0.00 70 1012.9
20260509033409 70 256 3.5 8.7 0.00 0.00 0.00 70 1012.9
20260509033307 70 250 2.6 8.7 0.00 0.00 0.00 70 1012.9
20260509033210 70 256 2.6 8.7 0.00 0.00 0.00 70 1012.9
20260509033153 70 239 2.6 8.7 0.00 0.00 0.00 70 1012.9
20260509033107 70 237 2.6 8.7 0.00 0.00 0.00 70 1012.9
20260509033006 70 208 2.6 7.8 0.00 0.00 0.00 70 1012.9
20260509032900 70 236 2.6 7.8 0.00 0.00 0.00 70 1012.9
20260509032801 70 221 2.6 7.8 0.00 0.00 0.00 70 1013.0
20260509032701 70 225 2.6 7.8 0.00 0.00 0.00 70 1012.9
20260509032650 70 229 2.6 7.8 0.00 0.00 0.00 70 1012.9
20260509032600 70 229 3.5 7.8 0.00 0.00 0.00 70 1012.9
20260509032501 70 223 2.6 7.8 0.00 0.00 0.00 70 1012.9
20260509032357 71 239 2.6 7.8 0.00 0.00 0.00 70 1013.0
20260509032257 71 250 2.6 7.8 0.00 0.00 0.00 70 1012.9
20260509032159 71 211 3.5 7.8 0.00 0.00 0.00 70 1012.9
20260509032148 71 197 3.5 7.8 0.00 0.00 0.00 70 1012.9
20260509032056 71 248 2.6 7.8 0.00 0.00 0.00 70 1012.9
20260509031955 71 229 2.6 7.0 0.00 0.00 0.00 70 1012.9
20260509031849 71 231 1.7 7.0 0.00 0.00 0.00 70 1012.9
20260509031749 71 233 1.7 6.1 0.00 0.00 0.00 70 1012.9
20260509031655 71 268 1.7 6.1 0.00 0.00 0.00 70 1012.9
20260509031648 71 269 1.7 6.1 0.00 0.00 0.00 70 1012.9
20260509031549 71 193 1.7 6.1 0.00 0.00 0.00 70 1013.0
20260509031448 71 226 2.6 7.0 0.00 0.00 0.00 70 1012.9
20260509031345 71 260 2.6 7.0 0.00 0.00 0.00 70 1012.9
20260509031243 71 224 2.6 7.0 0.00 0.00 0.00 69 1012.9
20260509031150 71 225 2.6 7.0 0.00 0.00 0.00 69 1012.9
20260509031142 71 228 2.6 7.8 0.00 0.00 0.00 69 1012.9
20260509031043 71 239 2.6 7.8 0.00 0.00 0.00 69 1012.9
20260509030942 71 238 3.5 9.6 0.00 0.00 0.00 69 1012.8
20260509030838 71 230 3.5 9.6 0.00 0.00 0.00 69 1012.8
20260509030737 71 212 3.5 9.6 0.00 0.00 0.00 69 1012.8
20260509030648 71 250 3.5 9.6 0.00 0.00 0.00 68 1012.8
20260509030637 71 259 3.5 9.6 0.00 0.00 0.00 68 1012.8
20260509030537 71 235 3.5 9.6 0.00 0.00 0.00 69 1012.8
20260509030436 72 240 3.5 9.6 0.00 0.00 0.00 68 1012.8
20260509030331 72 228 3.5 9.6 0.00 0.00 0.00 68 1012.8
20260509030231 72 243 3.5 9.6 0.00 0.00 0.00 68 1012.8
20260509030146 72 226 3.5 9.6 0.00 0.00 0.00 68 1012.8
20260509030131 72 219 3.5 9.6 0.00 0.00 0.00 68 1012.8
20260509030031 72 250 2.6 9.6 0.00 0.00 0.00 68 1012.8
20260509025930 72 235 2.6 7.8 0.00 0.00 0.00 68 1012.7
20260509025827 72 241 2.6 7.8 0.00 0.00 0.00 68 1012.7
20260509025727 72 246 2.6 7.8 0.00 0.00 0.00 67 1012.7
20260509025647 72 229 2.6 7.8 0.00 0.00 0.00 67 1012.7
20260509025627 72 255 2.6 7.8 0.00 0.00 0.00 67 1012.7
20260509025526 72 242 2.6 7.8 0.00 0.00 0.00 67 1012.7
20260509025423 73 243 2.6 7.8 0.00 0.00 0.00 67 1012.6
20260509025407 73 262 3.5 7.8 0.00 0.00 0.00 67 1012.6
20260509025319 73 242 2.6 7.8 0.00 0.00 0.00 67 1012.7
20260509025255 73 233 3.5 7.8 0.00 0.00 0.00 67 1012.6
20260509025119 73 208 3.5 7.8 0.00 0.00 0.00 67 1012.6
20260509025019 73 229 3.5 7.8 0.00 0.00 0.00 67 1012.6
20260509024918 73 229 3.5 7.8 0.00 0.00 0.00 66 1012.6
20260509024813 73 232 2.6 7.8 0.00 0.00 0.00 66 1012.6
20260509024713 73 238 3.5 7.8 0.00 0.00 0.00 66 1012.6
20260509024645 73 270 3.5 7.8 0.00 0.00 0.00 66 1012.6
20260509024613 73 253 2.6 7.8 0.00 0.00 0.00 66 1012.6
20260509024513 73 225 2.6 7.0 0.00 0.00 0.00 66 1012.6
20260509024412 73 193 2.6 7.0 0.00 0.00 0.00 66 1012.6
20260509024404 73 226 1.7 7.0 0.00 0.00 0.00 65 1012.5
20260509024310 73 222 1.7 7.0 0.00 0.00 0.00 66 1012.6
20260509024255 73 246 1.7 7.0 0.00 0.00 0.00 65 1012.5
20260509024108 74 243 1.7 7.0 0.00 0.00 0.00 65 1012.5
20260509024007 74 256 1.7 7.8 0.00 0.00 0.00 66 1012.5
20260509023906 74 238 1.7 7.8 0.00 0.00 0.00 65 1012.5
20260509023806 74 230 2.6 7.8 0.00 0.00 0.00 65 1012.5
20260509023705 74 257 1.7 11.3 0.00 0.00 0.00 65 1012.5
20260509023642 74 226 1.7 11.3 0.00 0.00 0.00 65 1012.6
20260509023603 74 236 2.6 11.3 0.00 0.00 0.00 65 1012.6
20260509023502 74 228 2.6 11.3 0.00 0.00 0.00 65 1012.5
20260509023401 74 248 3.5 11.3 0.00 0.00 0.00 65 1012.6
20260509023300 74 238 3.5 11.3 0.00 0.00 0.00 65 1012.6
20260509023156 74 238 3.5 11.3 0.00 0.00 0.00 65 1012.5
20260509023145 74 233 3.5 11.3 0.00 0.00 0.00 65 1012.5
20260509023054 74 235 3.5 11.3 0.00 0.00 0.00 64 1012.5
20260509022955 74 245 3.5 11.3 0.00 0.00 0.00 64 1012.5
20260509022854 74 200 2.6 11.3 0.00 0.00 0.00 64 1012.5
20260509022752 74 242 2.6 7.8 0.00 0.00 0.00 64 1012.5
20260509022643 74 262 2.6 7.8 0.00 0.00 0.00 64 1012.5
20260509022549 75 256 2.6 7.8 0.00 0.00 0.00 64 1012.5
20260509022449 75 239 2.6 7.8 0.00 0.00 0.00 64 1012.5
20260509022409 75 219 3.5 8.7 0.00 0.00 0.00 64 1012.5
20260509022348 75 229 2.6 7.0 0.00 0.00 0.00 64 1012.5
20260509022301 75 242 2.6 8.7 0.00 0.00 0.00 64 1012.5
20260509022251 75 219 3.5 8.7 0.00 0.00 0.00 64 1012.5
20260509022045 75 223 3.5 8.7 0.00 0.00 0.00 64 1012.6
20260509021944 75 161 3.5 8.7 0.00 0.00 0.00 63 1012.6
20260509021845 75 123 3.5 8.7 0.00 0.00 0.00 63 1012.6
20260509021745 75 224 3.5 8.7 0.00 0.00 0.00 63 1012.5
20260509021646 75 255 3.5 8.7 0.00 0.00 0.00 63 1012.5
20260509021545 75 228 3.5 8.7 0.00 0.00 0.00 63 1012.5
20260509021444 75 259 3.5 8.7 0.00 0.00 0.00 63 1012.5
20260509021345 75 236 3.5 8.7 0.00 0.00 0.00 63 1012.5
20260509021245 75 246 3.5 8.7 0.00 0.00 0.00 62 1012.5
20260509021148 75 242 3.5 10.4 0.00 0.00 0.00 62 1012.5
20260509021044 75 243 3.5 10.4 0.00 0.00 0.00 62 1012.5
20260509020945 76 239 3.5 10.4 0.00 0.00 0.00 62 1012.5
20260509020845 76 233 3.5 10.4 0.00 0.00 0.00 62 1012.6
20260509020745 76 231 3.5 10.4 0.00 0.00 0.00 62 1012.5
20260509020646 76 242 4.3 10.4 0.00 0.00 0.00 62 1012.6
20260509020538 76 231 4.3 10.4 0.00 0.00 0.00 62 1012.6
20260509020438 76 215 4.3 10.4 0.00 0.00 0.00 61 1012.5
20260509020339 76 240 4.3 10.4 0.00 0.00 0.00 61 1012.5
20260509020238 76 266 4.3 10.4 0.00 0.00 0.00 61 1012.5
20260509020139 76 231 4.3 9.6 0.00 0.00 0.00 61 1012.5
20260509020031 76 229 4.3 9.6 0.00 0.00 0.00 61 1012.5
20260509015931 76 239 4.3 9.6 0.00 0.00 0.00 61 1012.6
20260509015831 76 232 3.5 9.6 0.00 0.00 0.00 60 1012.5
20260509015731 76 248 3.5 9.6 0.00 0.00 0.00 61 1012.6
20260509015633 76 248 3.5 9.6 0.00 0.00 0.00 61 1012.6
20260509015527 76 207 3.5 9.6 0.00 0.00 0.00 61 1012.5
20260509015425 77 255 2.6 9.6 0.00 0.00 0.00 61 1012.5
20260509015325 77 229 2.6 9.6 0.00 0.00 0.00 61 1012.5
20260509015224 77 240 1.7 9.6 0.00 0.00 0.00 61 1012.5
20260509015127 77 221 1.7 8.7 0.00 0.00 0.00 61 1012.5
20260509015059 77 208 3.5 9.6 0.00 0.00 0.00 60 1012.5
20260509015019 77 207 1.7 8.7 0.00 0.00 0.00 61 1012.5
20260509014950 77 271 2.6 8.7 0.00 0.00 0.00 60 1012.6
20260509014819 77 239 2.6 8.7 0.00 0.00 0.00 60 1012.5
20260509014735 77 215 2.6 8.7 0.00 0.00 0.00 60 1012.6
20260509014724 77 208 3.5 9.6 0.00 0.00 0.00 60 1012.5
20260509014513 77 284 3.5 9.6 0.00 0.00 0.00 60 1012.6
20260509014413 77 238 3.5 10.4 0.00 0.00 0.00 59 1012.6
20260509014312 77 222 4.3 10.4 0.00 0.00 0.00 59 1012.7
20260509014213 77 250 4.3 10.4 0.00 0.00 0.00 59 1012.7
20260509014115 77 232 4.3 10.4 0.00 0.00 0.00 59 1012.7
20260509014007 77 256 4.3 10.4 0.00 0.00 0.00 59 1012.7
20260509013906 77 239 4.3 10.4 0.00 0.00 0.00 59 1012.7
20260509013807 77 215 4.3 10.4 0.00 0.00 0.00 59 1012.7
20260509013707 78 250 4.3 11.3 0.00 0.00 0.00 59 1012.7
20260509013609 78 228 4.3 11.3 0.00 0.00 0.00 59 1012.7
20260509013500 78 207 4.3 11.3 0.00 0.00 0.00 59 1012.7
20260509013401 78 250 4.3 11.3 0.00 0.00 0.00 59 1012.7
20260509013301 78 222 4.3 11.3 0.00 0.00 0.00 59 1012.7
20260509013201 78 277 4.3 11.3 0.00 0.00 0.00 59 1012.7
20260509013102 78 260 4.3 11.3 0.00 0.00 0.00 59 1012.7
20260509012957 78 229 4.3 11.3 0.00 0.00 0.00 58 1012.7
20260509012855 78 236 5.2 11.3 0.00 0.00 0.00 58 1012.8
20260509012754 78 224 4.3 11.3 0.00 0.00 0.00 58 1012.8
20260509012655 78 221 4.3 11.3 0.00 0.00 0.00 58 1012.8
20260509012555 78 219 4.3 11.3 0.00 0.00 0.00 58 1012.8
20260509012449 78 204 3.5 11.3 0.00 0.00 0.00 58 1012.7
20260509012349 78 215 3.5 11.3 0.00 0.00 0.00 58 1012.8
20260509012248 79 229 2.6 11.3 0.00 0.00 0.00 58 1012.8
20260509012149 79 235 2.6 11.3 0.00 0.00 0.00 57 1012.8
20260509012051 79 232 2.6 11.3 0.00 0.00 0.00 57 1012.8
20260509011947 79 194 1.7 10.4 0.00 0.00 0.00 57 1012.8
20260509011847 79 243 1.7 10.4 0.00 0.00 0.00 58 1012.8
20260509011745 79 193 1.7 7.0 0.00 0.00 0.00 58 1012.8
20260509011645 79 236 1.7 7.0 0.00 0.00 0.00 58 1012.8
20260509011545 79 240 1.7 7.0 0.00 0.00 0.00 58 1012.8
20260509011436 79 270 1.7 7.0 0.00 0.00 0.00 58 1012.8
20260509011338 79 259 1.7 7.0 0.00 0.00 0.00 57 1012.7
20260509011300 80 284 2.6 7.0 0.00 0.00 0.00 57 1012.7
20260509011237 80 277 1.7 7.0 0.00 0.00 0.00 58 1012.8
20260509011153 80 274 2.6 7.0 0.00 0.00 0.00 57 1012.7
20260509011142 80 284 2.6 7.0 0.00 0.00 0.00 57 1012.7
20260509010931 80 207 2.6 9.6 0.00 0.00 0.00 57 1012.8
20260509010831 80 248 2.6 9.6 0.00 0.00 0.00 57 1012.8
20260509010731 80 256 2.6 9.6 0.00 0.00 0.00 57 1012.8
20260509010630 80 232 2.6 9.6 0.00 0.00 0.00 57 1012.8
20260509010532 80 237 2.6 9.6 0.00 0.00 0.00 57 1012.8
20260509010427 80 234 2.6 9.6 0.00 0.00 0.00 57 1012.8
20260509010324 80 284 2.6 9.6 0.00 0.00 0.00 56 1012.8
20260509010225 80 236 2.6 9.6 0.00 0.00 0.00 56 1012.8
20260509010125 80 238 2.6 9.6 0.00 0.00 0.00 56 1012.9
20260509010027 80 246 2.6 9.6 0.00 0.00 0.00 56 1012.8
20260509005919 80 253 2.6 7.8 0.00 0.00 0.00 57 1012.8
20260509005818 80 226 2.6 9.6 0.00 0.00 0.00 57 1012.8
20260509005750 80 224 3.5 9.6 0.00 0.00 0.00 57 1012.8
20260509005718 80 274 2.6 9.6 0.00 0.00 0.00 57 1012.8
20260509005636 80 204 3.5 9.6 0.00 0.00 0.00 57 1012.8
20260509005625 80 224 3.5 9.6 0.00 0.00 0.00 57 1012.8
20260509005415 80 191 3.5 9.6 0.00 0.00 0.00 56 1012.8
20260509005313 80 214 3.5 9.6 0.00 0.00 0.00 56 1012.8
20260509005212 80 262 4.3 9.6 0.00 0.00 0.00 56 1012.8
20260509005113 80 264 4.3 9.6 0.00 0.00 0.00 56 1012.8
20260509005014 80 259 4.3 9.6 0.00 0.00 0.00 56 1012.8
20260509004907 80 276 4.3 9.6 0.00 0.00 0.00 56 1012.8
20260509004806 80 220 3.5 9.6 0.00 0.00 0.00 56 1012.9
20260509004707 81 203 3.5 9.6 0.00 0.00 0.00 55 1012.8
20260509004607 81 218 2.6 9.6 0.00 0.00 0.00 56 1012.8
20260509004508 81 204 2.6 9.6 0.00 0.00 0.00 55 1012.8
20260509004400 81 255 2.6 9.6 0.00 0.00 0.00 55 1012.8
20260509004301 81 228 1.7 8.7 0.00 0.00 0.00 55 1012.8
20260509004200 81 208 1.7 7.0 0.00 0.00 0.00 55 1012.8
20260509004101 81 231 1.7 7.0 0.00 0.00 0.00 55 1012.8
20260509004004 81 236 1.7 6.1 0.00 0.00 0.00 55 1012.9
20260509003854 81 205 0.9 6.1 0.00 0.00 0.00 56 1012.9
20260509003755 81 233 0.9 6.1 0.00 0.00 0.00 55 1012.8
20260509003655 81 233 0.9 6.1 0.00 0.00 0.00 55 1012.8
20260509003555 81 248 0.9 6.1 0.00 0.00 0.00 55 1012.9
20260509003454 81 235 0.9 6.1 0.00 0.00 0.00 55 1012.9
20260509003349 82 248 0.9 6.1 0.00 0.00 0.00 54 1012.9
20260509003249 82 246 0.9 6.1 0.00 0.00 0.00 55 1012.9
20260509003148 82 261 0.9 6.1 0.00 0.00 0.00 54 1012.9
20260509003049 82 229 0.9 6.1 0.00 0.00 0.00 55 1013.0
20260509002958 82 207 0.9 5.2 0.00 0.00 0.00 55 1012.9
20260509002948 82 235 0.9 5.2 0.00 0.00 0.00 55 1012.9
20260509002845 82 235 1.7 7.8 0.00 0.00 0.00 55 1012.9
20260509002743 82 235 1.7 7.8 0.00 0.00 0.00 56 1012.9
20260509002642 82 235 2.6 7.8 0.00 0.00 0.00 55 1012.9
20260509002543 82 235 2.6 7.8 0.00 0.00 0.00 54 1012.9
20260509002459 82 228 2.6 7.8 0.00 0.00 0.00 55 1012.9
20260509002441 82 236 2.6 7.8 0.00 0.00 0.00 55 1013.0
20260509002341 82 232 2.6 7.8 0.00 0.00 0.00 55 1013.0
20260509002241 82 245 3.5 7.8 0.00 0.00 0.00 55 1013.0
20260509002139 82 219 3.5 8.7 0.00 0.00 0.00 54 1013.0
20260509002038 82 240 3.5 8.7 0.00 0.00 0.00 54 1013.0
20260509001956 82 240 3.5 8.7 0.00 0.00 0.00 54 1013.0
20260509001936 82 259 3.5 8.7 0.00 0.00 0.00 54 1013.0
20260509001833 82 208 3.5 8.7 0.00 0.00 0.00 54 1013.0
20260509001736 82 246 3.5 8.7 0.00 0.00 0.00 54 1013.0
20260509001632 82 238 3.5 8.7 0.00 0.00 0.00 54 1013.0
20260509001533 82 248 3.5 8.7 0.00 0.00 0.00 54 1013.0
20260509001458 82 198 3.5 8.7 0.00 0.00 0.00 54 1013.0
20260509001430 82 218 3.5 8.7 0.00 0.00 0.00 54 1013.1
20260509001325 82 231 3.5 8.7 0.00 0.00 0.00 53 1013.0
20260509001225 83 250 2.6 8.7 0.00 0.00 0.00 53 1013.1
20260509001124 83 226 2.6 7.0 0.00 0.00 0.00 54 1013.1
20260509001025 83 197 2.6 7.0 0.00 0.00 0.00 53 1013.1
20260509000958 83 229 2.6 7.0 0.00 0.00 0.00 53 1013.1
20260509000924 83 239 2.6 7.0 0.00 0.00 0.00 52 1013.1
20260509000825 83 239 2.6 7.0 0.00 0.00 0.00 52 1013.1
20260509000723 83 242 2.6 7.0 0.00 0.00 0.00 52 1013.1
20260509000620 83 243 2.6 7.0 0.00 0.00 0.00 53 1013.1
20260509000519 83 229 2.6 7.0 0.00 0.00 0.00 53 1013.1
20260509000458 83 239 2.6 7.0 0.00 0.00 0.00 53 1013.1
20260509000418 84 276 2.6 7.0 0.00 0.00 0.00 52 1013.1
20260509000319 84 240 2.6 7.0 0.00 0.00 0.00 52 1013.1
20260509000226 84 228 2.6 7.0 0.00 0.00 0.00 52 1013.1
20260509000219 84 275 2.6 7.0 0.00 0.00 0.00 52 1013.1
20260509000118 84 211 2.6 7.0 0.00 0.00 0.00 52 1013.1
20260509000109 84 235 2.6 7.0 0.00 0.00 0.00 52 1013.1
20260508235912 84 224 2.6 7.0 0.00 0.00 0.00 51 1013.1
20260508235809 84 245 2.6 7.0 0.00 0.00 0.00 51 1013.1
20260508235707 84 235 1.7 7.0 0.00 0.00 0.00 51 1013.1
20260508235606 85 236 1.7 6.1 0.00 0.00 0.00 51 1013.2
20260508235507 85 217 1.7 6.1 0.00 0.00 0.00 51 1013.2
20260508235454 85 233 1.7 6.1 0.00 0.00 0.00 51 1013.2
20260508235407 85 222 1.7 6.1 0.00 0.00 0.00 51 1013.2
20260508235306 85 242 1.7 6.1 0.00 0.00 0.00 51 1013.2
20260508235203 85 233 1.7 6.1 0.00 0.00 0.00 51 1013.2
20260508235103 85 211 0.9 5.2 0.00 0.00 0.00 50 1013.2
20260508235002 85 231 0.9 5.2 0.00 0.00 0.00 51 1013.2
20260508234952 85 232 0.9 5.2 0.00 0.00 0.00 51 1013.2
20260508234900 85 243 0.9 5.2 0.00 0.00 0.00 51 1013.2
20260508234800 85 259 0.9 6.1 0.00 0.00 0.00 51 1013.2
20260508234659 85 259 0.9 6.1 0.00 0.00 0.00 50 1013.2
20260508234557 85 259 0.9 6.1 0.00 0.00 0.00 51 1013.2
20260508234453 85 257 0.9 6.1 0.00 0.00 0.00 51 1013.2
20260508234354 85 148 0.9 6.1 0.00 0.00 0.00 51 1013.3
20260508234251 85 148 0.9 6.1 0.00 0.00 0.00 50 1013.3
20260508234149 85 148 0.9 6.1 0.00 0.00 0.00 51 1013.3
20260508234049 85 232 0.9 6.1 0.00 0.00 0.00 50 1013.3
20260508233949 85 232 1.7 6.1 0.00 0.00 0.00 52 1013.3
20260508233848 85 242 0.9 6.1 0.00 0.00 0.00 52 1013.3
20260508233748 85 242 0.9 4.3 0.00 0.00 0.00 52 1013.3
20260508233710 86 214 0.9 4.3 0.00 0.00 0.00 50 1013.3
20260508233642 85 253 0.9 4.3 0.00 0.00 0.00 51 1013.3
20260508233559 85 253 0.9 4.3 0.00 0.00 0.00 50 1013.3
20260508233441 86 211 0.9 4.3 0.00 0.00 0.00 50 1013.3
20260508233340 86 284 0.9 4.3 0.00 0.00 0.00 51 1013.4
20260508233236 86 284 0.9 4.3 0.00 0.00 0.00 51 1013.4
20260508233135 86 8 0.9 4.3 0.00 0.00 0.00 50 1013.4
20260508233034 86 115 0.0 4.3 0.00 0.00 0.00 50 1013.4
20260508232948 86 231 0.0 4.3 0.00 0.00 0.00 50 1013.4
20260508232935 86 212 0.0 4.3 0.00 0.00 0.00 50 1013.5
20260508232834 86 149 0.9 4.3 0.00 0.00 0.00 48 1013.5
20260508232736 86 149 0.9 4.3 0.00 0.00 0.00 49 1013.5
20260508232654 85 93 0.9 7.8 0.00 0.00 0.00 51 1013.5
20260508232632 86 150 0.9 4.3 0.00 0.00 0.00 50 1013.4
20260508232554 85 149 0.9 4.3 0.00 0.00 0.00 50 1013.4
20260508232544 85 149 0.9 4.3 0.00 0.00 0.00 49 1013.4
20260508232430 85 150 0.9 4.3 0.00 0.00 0.00 49 1013.4
20260508232329 85 149 0.9 4.3 0.00 0.00 0.00 49 1013.5
20260508232320 85 222 0.9 4.3 0.00 0.00 0.00 51 1013.5
20260508232124 85 236 1.7 4.3 0.00 0.00 0.00 50 1013.5
20260508232100 85 236 0.9 7.8 0.00 0.00 0.00 50 1013.5
20260508231921 85 162 0.9 7.8 0.00 0.00 0.00 51 1013.5
20260508231820 85 314 0.9 7.8 0.00 0.00 0.00 51 1013.5
20260508231721 85 314 0.9 7.8 0.00 0.00 0.00 52 1013.5
20260508231708 85 215 0.9 7.8 0.00 0.00 0.00 51 1013.5
20260508231619 85 216 0.9 7.8 0.00 0.00 0.00 52 1013.5
20260508231557 85 215 0.9 7.8 0.00 0.00 0.00 51 1013.5
20260508231417 85 236 0.9 7.8 0.00 0.00 0.00 51 1013.5
20260508231314 85 223 0.9 7.8 0.00 0.00 0.00 51 1013.5
20260508231209 85 113 0.9 7.8 0.00 0.00 0.00 50 1013.5
20260508231108 85 246 0.9 7.8 0.00 0.00 0.00 51 1013.5
20260508231009 85 222 0.9 3.5 0.00 0.00 0.00 51 1013.5
20260508230946 85 218 0.9 3.5 0.00 0.00 0.00 52 1013.5
20260508230909 85 232 0.9 3.5 0.00 0.00 0.00 52 1013.5
20260508230806 85 233 0.9 3.5 0.00 0.00 0.00 51 1013.6
20260508230703 85 221 0.9 3.5 0.00 0.00 0.00 50 1013.6
20260508230602 85 297 0.9 3.5 0.00 0.00 0.00 50 1013.6
20260508230445 85 298 0.9 5.2 0.00 0.00 0.00 49 1013.6
20260508230403 85 315 0.9 5.2 0.00 0.00 0.00 49 1013.6
20260508230301 85 8 0.9 5.2 0.00 0.00 0.00 49 1013.6
20260508230154 85 316 0.9 6.1 0.00 0.00 0.00 51 1013.6
20260508230054 85 223 0.9 6.1 0.00 0.00 0.00 51 1013.7
20260508225942 85 222 0.9 6.1 0.00 0.00 0.00 51 1013.7
20260508225855 85 222 1.7 6.1 0.00 0.00 0.00 51 1013.7
20260508225754 85 213 1.7 6.1 0.00 0.00 0.00 51 1013.7
20260508225651 84 232 1.7 6.1 0.00 0.00 0.00 51 1013.7
20260508225550 85 231 1.7 6.1 0.00 0.00 0.00 50 1013.7
20260508225454 85 206 1.7 6.1 0.00 0.00 0.00 50 1013.8
20260508225443 85 211 1.7 6.1 0.00 0.00 0.00 50 1013.8
20260508225351 85 235 1.7 6.1 0.00 0.00 0.00 52 1013.8
20260508225248 84 293 1.7 6.1 0.00 0.00 0.00 52 1013.8
20260508225207 84 212 1.7 5.2 0.00 0.00 0.00 50 1013.9
20260508225144 84 232 1.7 5.2 0.00 0.00 0.00 52 1013.8
20260508225102 84 212 1.7 5.2 0.00 0.00 0.00 51 1013.8
20260508225051 84 212 1.7 5.2 0.00 0.00 0.00 50 1013.9
20260508224845 84 232 1.7 5.2 0.00 0.00 0.00 51 1013.9
20260508224743 85 232 1.7 5.2 0.00 0.00 0.00 50 1013.9
20260508224636 85 239 0.9 5.2 0.00 0.00 0.00 49 1014.0
20260508224537 85 219 0.9 4.3 0.00 0.00 0.00 49 1014.0
20260508224443 85 224 0.9 4.3 0.00 0.00 0.00 49 1014.0
20260508224436 85 212 0.9 4.3 0.00 0.00 0.00 49 1014.0
20260508224337 85 210 0.9 4.3 0.00 0.00 0.00 51 1014.0
20260508224236 85 239 0.9 4.3 0.00 0.00 0.00 51 1014.0
20260508224131 85 243 0.9 4.3 0.00 0.00 0.00 52 1014.0
20260508224030 84 253 0.9 4.3 0.00 0.00 0.00 51 1014.0
20260508223940 85 108 0.9 4.3 0.00 0.00 0.00 50 1014.0
20260508223931 85 27 0.9 4.3 0.00 0.00 0.00 50 1014.0
20260508223830 85 318 0.9 4.3 0.00 0.00 0.00 49 1014.1
20260508223730 85 335 0.9 4.3 0.00 0.00 0.00 50 1014.1
20260508223630 85 77 0.9 4.3 0.00 0.00 0.00 50 1014.1
20260508223528 85 79 0.9 4.3 0.00 0.00 0.00 50 1014.2
20260508223429 85 79 0.9 4.3 0.00 0.00 0.00 49 1014.2
20260508223327 85 325 0.9 3.5 0.00 0.00 0.00 50 1014.2
20260508223224 85 245 0.9 2.6 0.00 0.00 0.00 51 1014.2
20260508223207 85 177 0.9 3.5 0.00 0.00 0.00 50 1014.2
20260508223121 85 325 0.9 2.6 0.00 0.00 0.00 51 1014.2
20260508223051 85 325 0.9 3.5 0.00 0.00 0.00 50 1014.2
20260508222919 85 172 0.9 3.5 0.00 0.00 0.00 50 1014.2
20260508222819 85 115 0.9 3.5 0.00 0.00 0.00 50 1014.2
20260508222718 85 201 0.9 3.5 0.00 0.00 0.00 51 1014.3
20260508222615 85 238 0.9 3.5 0.00 0.00 0.00 50 1014.3
20260508222513 85 302 0.9 5.2 0.00 0.00 0.00 50 1014.3
20260508222441 85 302 0.9 5.2 0.00 0.00 0.00 50 1014.3
20260508222413 85 302 0.9 5.2 0.00 0.00 0.00 51 1014.3
20260508222313 85 236 0.9 5.2 0.00 0.00 0.00 51 1014.3
20260508222212 85 231 0.9 6.1 0.00 0.00 0.00 51 1014.3
20260508222141 85 216 1.7 6.1 0.00 0.00 0.00 51 1014.4
20260508222113 84 227 0.9 6.1 0.00 0.00 0.00 51 1014.3
20260508222038 84 308 1.7 6.1 0.00 0.00 0.00 52 1014.4
20260508222028 84 308 1.7 6.1 0.00 0.00 0.00 52 1014.4
20260508221911 84 308 1.7 6.1 0.00 0.00 0.00 52 1014.4
20260508221817 84 307 1.7 6.1 0.00 0.00 0.00 51 1014.4
20260508221806 84 307 1.7 6.1 0.00 0.00 0.00 51 1014.4
20260508221603 85 328 1.7 6.1 0.00 0.00 0.00 50 1014.4
20260508221549 85 207 1.7 6.1 0.00 0.00 0.00 51 1014.4
20260508221401 85 215 1.7 6.1 0.00 0.00 0.00 50 1014.4
20260508221303 85 266 0.9 6.1 0.00 0.00 0.00 50 1014.4
20260508221201 85 231 0.9 3.5 0.00 0.00 0.00 50 1014.4
20260508221057 85 239 0.9 3.5 0.00 0.00 0.00 50 1014.4
20260508221001 85 231 0.9 3.5 0.00 0.00 0.00 51 1014.4
20260508220950 85 242 0.9 3.5 0.00 0.00 0.00 51 1014.5
20260508220855 85 266 0.9 2.6 0.00 0.00 0.00 52 1014.5
20260508220755 85 264 0.9 2.6 0.00 0.00 0.00 51 1014.5
20260508220654 85 144 0.9 2.6 0.00 0.00 0.00 50 1014.5
20260508220552 85 101 0.9 2.6 0.00 0.00 0.00 49 1014.5
20260508220452 85 232 0.9 1.7 0.00 0.00 0.00 50 1014.5
20260508220438 85 232 0.9 1.7 0.00 0.00 0.00 50 1014.6
20260508220353 85 217 0.9 1.7 0.00 0.00 0.00 51 1014.6
20260508220250 85 215 0.9 6.1 0.00 0.00 0.00 51 1014.6
20260508220149 84 194 0.9 6.1 0.00 0.00 0.00 51 1014.7
20260508220043 84 226 0.9 6.1 0.00 0.00 0.00 52 1014.7
20260508215947 84 229 0.9 6.1 0.00 0.00 0.00 52 1014.7
20260508215936 83 229 0.9 6.1 0.00 0.00 0.00 52 1014.7
20260508215843 83 273 0.9 6.1 0.00 0.00 0.00 53 1014.7
20260508215742 83 273 1.7 6.1 0.00 0.00 0.00 53 1014.8
20260508215642 83 271 1.7 6.1 0.00 0.00 0.00 53 1014.7
20260508215539 83 266 1.7 6.1 0.00 0.00 0.00 53 1014.8
20260508215441 83 332 1.7 6.1 0.00 0.00 0.00 50 1014.9
20260508215338 83 319 1.7 6.1 0.00 0.00 0.00 52 1014.9
20260508215239 84 302 1.7 5.2 0.00 0.00 0.00 52 1014.9
20260508215136 84 302 1.7 5.2 0.00 0.00 0.00 51 1014.9
20260508215034 84 304 0.9 5.2 0.00 0.00 0.00 53 1014.9
20260508214939 84 231 0.9 5.2 0.00 0.00 0.00 51 1014.9
20260508214931 84 231 0.9 5.2 0.00 0.00 0.00 52 1014.9
20260508214831 84 8 0.9 5.2 0.00 0.00 0.00 51 1014.9
20260508214730 84 63 0.9 4.3 0.00 0.00 0.00 51 1014.9
20260508214628 84 53 0.9 4.3 0.00 0.00 0.00 52 1015.0
20260508214525 84 194 0.9 4.3 0.00 0.00 0.00 50 1015.0
20260508214436 83 158 0.9 4.3 0.00 0.00 0.00 51 1015.1
20260508214425 83 198 0.9 4.3 0.00 0.00 0.00 52 1015.1
20260508214325 83 245 0.9 4.3 0.00 0.00 0.00 52 1015.1
20260508214224 83 207 0.9 4.3 0.00 0.00 0.00 53 1015.1
20260508214121 83 222 0.9 4.3 0.00 0.00 0.00 53 1015.1
20260508214014 83 200 0.9 4.3 0.00 0.00 0.00 54 1015.1
20260508213938 83 200 0.9 4.3 0.00 0.00 0.00 53 1015.1
20260508213915 83 200 0.9 4.3 0.00 0.00 0.00 52 1015.1
20260508213814 83 309 0.9 4.3 0.00 0.00 0.00 52 1015.1
20260508213715 83 309 0.9 4.3 0.00 0.00 0.00 51 1015.1
20260508213649 83 65 0.9 2.6 0.00 0.00 0.00 51 1015.2
20260508213614 83 32 0.9 2.6 0.00 0.00 0.00 51 1015.1
20260508213539 83 339 0.9 2.6 0.00 0.00 0.00 51 1015.1
20260508213411 83 1 0.9 2.6 0.00 0.00 0.00 52 1015.2
20260508213309 83 286 0.9 3.5 0.00 0.00 0.00 52 1015.2
20260508213209 83 287 0.9 3.5 0.00 0.00 0.00 52 1015.2
20260508213107 83 287 0.9 3.5 0.00 0.00 0.00 52 1015.2
20260508213002 83 287 0.9 3.5 0.00 0.00 0.00 53 1015.2
20260508212921 83 286 0.9 3.5 0.00 0.00 0.00 52 1015.2
20260508212900 83 232 0.9 3.5 0.00 0.00 0.00 52 1015.2
20260508212801 83 238 0.9 3.5 0.00 0.00 0.00 53 1015.2
20260508212701 83 228 0.9 3.5 0.00 0.00 0.00 53 1015.2
20260508212558 83 314 0.9 3.5 0.00 0.00 0.00 53 1015.2
20260508212457 83 312 0.9 3.5 0.00 0.00 0.00 53 1015.2
20260508212418 83 311 0.9 5.2 0.00 0.00 0.00 53 1015.2
20260508212357 83 309 0.9 5.2 0.00 0.00 0.00 55 1015.2
20260508212257 82 243 0.9 5.2 0.00 0.00 0.00 54 1015.2
20260508212155 82 243 0.9 5.2 0.00 0.00 0.00 55 1015.2
20260508212141 82 345 0.9 5.2 0.00 0.00 0.00 54 1015.3
20260508212051 82 143 0.9 5.2 0.00 0.00 0.00 53 1015.3
20260508212027 82 346 0.9 5.2 0.00 0.00 0.00 53 1015.3
20260508211844 82 343 0.9 5.2 0.00 0.00 0.00 54 1015.3
20260508211745 82 336 0.9 5.2 0.00 0.00 0.00 55 1015.4
20260508211645 82 290 1.7 5.2 0.00 0.00 0.00 54 1015.4
20260508211544 82 318 1.7 5.2 0.00 0.00 0.00 53 1015.4
20260508211438 82 318 1.7 7.0 0.00 0.00 0.00 53 1015.4
20260508211414 82 326 1.7 7.0 0.00 0.00 0.00 55 1015.4
20260508211338 82 304 1.7 7.0 0.00 0.00 0.00 56 1015.4
20260508211239 82 304 1.7 7.0 0.00 0.00 0.00 56 1015.4
20260508211138 82 190 1.7 7.0 0.00 0.00 0.00 55 1015.5
20260508211036 81 319 1.7 7.0 0.00 0.00 0.00 55 1015.5
20260508210915 81 233 1.7 7.0 0.00 0.00 0.00 55 1015.5
20260508210833 81 233 1.7 7.0 0.00 0.00 0.00 54 1015.5
20260508210736 81 236 1.7 7.0 0.00 0.00 0.00 54 1015.4
20260508210633 82 238 1.7 7.0 0.00 0.00 0.00 53 1015.5
20260508210530 82 250 1.7 7.0 0.00 0.00 0.00 54 1015.5
20260508210427 82 210 1.7 5.2 0.00 0.00 0.00 55 1015.5
20260508210413 82 246 1.7 5.2 0.00 0.00 0.00 54 1015.5
20260508210326 82 126 1.7 5.2 0.00 0.00 0.00 55 1015.5
20260508210227 81 302 1.7 5.2 0.00 0.00 0.00 54 1015.5
20260508210136 81 212 0.9 5.2 0.00 0.00 0.00 53 1015.6
20260508210126 81 274 0.9 5.2 0.00 0.00 0.00 55 1015.6
20260508210031 81 271 0.9 5.2 0.00 0.00 0.00 55 1015.6
20260508210022 81 242 0.9 5.2 0.00 0.00 0.00 54 1015.6
20260508205823 81 232 0.9 5.2 0.00 0.00 0.00 53 1015.6
20260508205723 82 232 0.9 5.2 0.00 0.00 0.00 53 1015.6
20260508205621 82 208 1.7 5.2 0.00 0.00 0.00 53 1015.6
20260508205518 81 208 1.7 5.2 0.00 0.00 0.00 54 1015.7
20260508205409 81 233 1.7 5.2 0.00 0.00 0.00 55 1015.6
20260508205313 81 210 1.7 5.2 0.00 0.00 0.00 55 1015.6
20260508205212 81 204 1.7 5.2 0.00 0.00 0.00 55 1015.6
20260508205113 80 188 1.7 5.2 0.00 0.00 0.00 55 1015.6
20260508205012 80 188 1.7 5.2 0.00 0.00 0.00 55 1015.6
20260508204909 80 235 1.7 5.2 0.00 0.00 0.00 55 1015.6
20260508204809 80 148 1.7 5.2 0.00 0.00 0.00 55 1015.6
20260508204709 80 211 1.7 5.2 0.00 0.00 0.00 55 1015.6
20260508204608 80 222 0.9 5.2 0.00 0.00 0.00 56 1015.7
20260508204507 80 300 0.9 5.2 0.00 0.00 0.00 55 1015.7
20260508204408 80 305 1.7 5.2 0.00 0.00 0.00 56 1015.7
20260508204401 80 293 1.7 5.2 0.00 0.00 0.00 56 1015.7
20260508204301 80 314 1.7 5.2 0.00 0.00 0.00 55 1015.7
20260508204201 80 314 1.7 5.2 0.00 0.00 0.00 55 1015.7
20260508204100 80 313 1.7 5.2 0.00 0.00 0.00 54 1015.7
20260508204001 80 314 1.7 5.2 0.00 0.00 0.00 55 1015.7
20260508203907 80 240 1.7 6.1 0.00 0.00 0.00 55 1015.7
20260508203857 80 250 1.7 6.1 0.00 0.00 0.00 55 1015.7
20260508203755 80 232 1.7 6.1 0.00 0.00 0.00 55 1015.7
20260508203655 80 237 1.7 6.1 0.00 0.00 0.00 55 1015.7
20260508203555 80 236 1.7 6.1 0.00 0.00 0.00 53 1015.7
20260508203454 80 238 1.7 6.1 0.00 0.00 0.00 53 1015.8
20260508203405 80 246 1.7 6.1 0.00 0.00 0.00 55 1015.8
20260508203350 80 228 1.7 6.1 0.00 0.00 0.00 55 1015.8
20260508203248 80 136 1.7 6.1 0.00 0.00 0.00 55 1015.8
20260508203149 80 146 1.7 6.1 0.00 0.00 0.00 56 1015.7
20260508203049 80 245 0.9 6.1 0.00 0.00 0.00 55 1015.8
20260508202948 80 208 0.9 4.3 0.00 0.00 0.00 55 1015.8
20260508202905 80 239 0.9 4.3 0.00 0.00 0.00 55 1015.8
20260508202843 80 239 0.9 4.3 0.00 0.00 0.00 55 1015.8
20260508202742 80 239 0.9 4.3 0.00 0.00 0.00 56 1015.9
20260508202643 80 238 0.9 4.3 0.00 0.00 0.00 55 1015.9
20260508202542 80 239 1.7 6.1 0.00 0.00 0.00 54 1015.9
20260508202442 80 319 0.9 6.1 0.00 0.00 0.00 56 1015.8
20260508202405 80 353 0.9 6.1 0.00 0.00 0.00 55 1015.8
20260508202339 80 207 0.9 6.1 0.00 0.00 0.00 55 1015.9
20260508202238 79 231 0.9 6.1 0.00 0.00 0.00 56 1015.8
20260508202138 79 346 1.7 6.1 0.00 0.00 0.00 56 1015.9
20260508202038 79 307 1.7 6.1 0.00 0.00 0.00 55 1015.9
20260508201936 79 302 1.7 6.1 0.00 0.00 0.00 55 1015.9
20260508201904 79 307 1.7 6.1 0.00 0.00 0.00 55 1015.9
20260508201831 79 301 1.7 6.1 0.00 0.00 0.00 56 1015.9
20260508201732 79 295 1.7 6.1 0.00 0.00 0.00 55 1015.9
20260508201633 79 229 0.9 6.1 0.00 0.00 0.00 54 1015.9
20260508201625 79 223 0.9 6.1 0.00 0.00 0.00 56 1015.9
20260508201531 79 207 0.9 6.1 0.00 0.00 0.00 55 1015.9
20260508201517 79 222 0.9 6.1 0.00 0.00 0.00 56 1015.9
20260508201327 79 223 0.9 6.1 0.00 0.00 0.00 56 1015.9
20260508201226 79 212 0.9 6.1 0.00 0.00 0.00 55 1015.9
20260508201127 79 208 0.9 6.1 0.00 0.00 0.00 56 1016.0
20260508201027 78 221 0.9 6.1 0.00 0.00 0.00 56 1016.0
20260508200905 78 309 0.9 6.1 0.00 0.00 0.00 57 1016.0
20260508200823 78 278 0.9 6.1 0.00 0.00 0.00 58 1016.0
20260508200723 78 277 0.9 6.1 0.00 0.00 0.00 58 1016.0
20260508200623 78 146 1.7 6.1 0.00 0.00 0.00 57 1016.1
20260508200521 77 146 1.7 6.1 0.00 0.00 0.00 57 1016.1
20260508200406 77 231 1.7 6.1 0.00 0.00 0.00 56 1016.1
20260508200313 77 236 1.7 6.1 0.00 0.00 0.00 58 1016.2
20260508200213 77 333 1.7 6.1 0.00 0.00 0.00 57 1016.1
20260508200113 78 319 1.7 6.1 0.00 0.00 0.00 56 1016.1
20260508200012 78 311 1.7 5.2 0.00 0.00 0.00 57 1016.1
20260508195914 78 148 1.7 6.1 0.00 0.00 0.00 58 1016.2
20260508195903 77 148 1.7 6.1 0.00 0.00 0.00 58 1016.2
20260508195809 77 139 2.6 6.1 0.00 0.00 0.00 59 1016.2
20260508195707 77 139 2.6 6.1 0.00 0.00 0.00 58 1016.2
20260508195606 77 138 2.6 6.1 0.00 0.00 0.00 57 1016.3
20260508195507 77 235 2.6 6.1 0.00 0.00 0.00 56 1016.3
20260508195406 77 211 2.6 6.1 0.00 0.00 0.00 57 1016.2
20260508195259 77 139 2.6 6.1 0.00 0.00 0.00 57 1016.3
20260508195158 77 204 2.6 6.1 0.00 0.00 0.00 56 1016.3
20260508195059 77 269 2.6 6.1 0.00 0.00 0.00 58 1016.2
20260508194959 77 238 2.6 7.8 0.00 0.00 0.00 57 1016.2
20260508194858 77 257 2.6 7.8 0.00 0.00 0.00 57 1016.2
20260508194753 76 248 2.6 7.8 0.00 0.00 0.00 58 1016.3
20260508194652 76 131 2.6 7.8 0.00 0.00 0.00 57 1016.2
20260508194553 76 219 2.6 7.8 0.00 0.00 0.00 58 1016.3
20260508194453 76 222 2.6 7.8 0.00 0.00 0.00 58 1016.2
20260508194401 76 219 2.6 7.8 0.00 0.00 0.00 57 1016.3
20260508194353 76 195 2.6 7.8 0.00 0.00 0.00 57 1016.3
20260508194253 76 236 1.7 7.8 0.00 0.00 0.00 57 1016.3
20260508194147 77 255 1.7 7.8 0.00 0.00 0.00 57 1016.3
20260508194120 77 241 0.9 5.2 0.00 0.00 0.00 58 1016.3
20260508194047 77 235 1.7 7.8 0.00 0.00 0.00 57 1016.3
20260508194010 77 238 0.9 5.2 0.00 0.00 0.00 58 1016.3
20260508193846 77 167 0.9 5.2 0.00 0.00 0.00 57 1016.4
20260508193743 77 233 0.9 5.2 0.00 0.00 0.00 57 1016.4
20260508193640 77 229 0.9 5.2 0.00 0.00 0.00 57 1016.4
20260508193541 77 228 0.9 5.2 0.00 0.00 0.00 57 1016.4
20260508193441 77 239 0.9 3.5 0.00 0.00 0.00 58 1016.4
20260508193358 76 340 0.9 6.1 0.00 0.00 0.00 58 1016.4
20260508193341 76 340 0.9 6.1 0.00 0.00 0.00 59 1016.4
20260508193241 76 343 1.7 6.1 0.00 0.00 0.00 60 1016.5
20260508193138 76 343 1.7 6.1 0.00 0.00 0.00 60 1016.4
20260508193040 76 343 1.7 6.1 0.00 0.00 0.00 60 1016.4
20260508192937 75 337 1.7 6.1 0.00 0.00 0.00 60 1016.5
20260508192856 75 337 1.7 6.1 0.00 0.00 0.00 61 1016.5
20260508192834 75 338 2.6 6.1 0.00 0.00 0.00 61 1016.4
20260508192729 75 146 2.6 6.1 0.00 0.00 0.00 61 1016.5
20260508192629 75 236 2.6 6.1 0.00 0.00 0.00 61 1016.5
20260508192529 75 236 2.6 6.1 0.00 0.00 0.00 60 1016.5
20260508192429 75 248 2.6 6.1 0.00 0.00 0.00 59 1016.5
20260508192356 75 219 2.6 6.1 0.00 0.00 0.00 59 1016.5
20260508192328 75 229 1.7 6.1 0.00 0.00 0.00 60 1016.5
20260508192223 75 229 1.7 4.3 0.00 0.00 0.00 59 1016.4
20260508192123 75 273 1.7 4.3 0.00 0.00 0.00 60 1016.4
20260508192022 75 139 1.7 4.3 0.00 0.00 0.00 59 1016.5
20260508191923 75 205 1.7 4.3 0.00 0.00 0.00 59 1016.5
20260508191857 75 229 1.7 5.2 0.00 0.00 0.00 58 1016.5
20260508191822 75 223 1.7 7.8 0.00 0.00 0.00 59 1016.5
20260508191719 75 218 1.7 7.8 0.00 0.00 0.00 61 1016.5
20260508191617 75 238 1.7 7.8 0.00 0.00 0.00 60 1016.5
20260508191516 75 217 1.7 7.8 0.00 0.00 0.00 61 1016.5
20260508191417 74 344 1.7 7.8 0.00 0.00 0.00 61 1016.5
20260508191356 74 204 1.7 7.8 0.00 0.00 0.00 61 1016.5
20260508191316 74 203 1.7 7.8 0.00 0.00 0.00 61 1016.5
20260508191216 74 266 1.7 7.8 0.00 0.00 0.00 61 1016.5
20260508191115 74 266 1.7 7.8 0.00 0.00 0.00 61 1016.5
20260508191014 74 268 1.7 7.8 0.00 0.00 0.00 61 1016.5
20260508190913 74 217 1.7 7.8 0.00 0.00 0.00 60 1016.6
20260508190856 74 243 1.7 7.8 0.00 0.00 0.00 61 1016.6
20260508190810 74 245 0.9 7.8 0.00 0.00 0.00 61 1016.6
20260508190705 74 283 0.9 7.8 0.00 0.00 0.00 59 1016.7
20260508190605 75 224 0.9 7.8 0.00 0.00 0.00 61 1016.7
20260508190505 75 266 0.9 7.8 0.00 0.00 0.00 60 1016.7
20260508190404 75 222 0.9 4.3 0.00 0.00 0.00 62 1016.7
20260508190353 74 239 0.9 4.3 0.00 0.00 0.00 62 1016.7
20260508190305 74 235 0.9 4.3 0.00 0.00 0.00 62 1016.7
20260508190205 74 235 1.7 4.3 0.00 0.00 0.00 62 1016.7
20260508190103 74 235 1.7 5.2 0.00 0.00 0.00 62 1016.7
20260508190003 74 235 1.7 5.2 0.00 0.00 0.00 63 1016.7
20260508185902 73 226 1.7 5.2 0.00 0.00 0.00 63 1016.7
20260508185852 73 225 1.7 5.2 0.00 0.00 0.00 63 1016.7
20260508185758 73 239 1.7 5.2 0.00 0.00 0.00 63 1016.7
20260508185654 73 268 1.7 5.2 0.00 0.00 0.00 62 1016.8
20260508185555 73 195 1.7 5.2 0.00 0.00 0.00 61 1016.8
20260508185455 73 160 1.7 5.2 0.00 0.00 0.00 61 1016.8
20260508185357 73 121 1.7 5.2 0.00 0.00 0.00 62 1016.8
20260508185252 74 222 1.7 5.2 0.00 0.00 0.00 60 1016.8
20260508185149 74 231 0.9 5.2 0.00 0.00 0.00 60 1016.8
20260508185047 74 212 0.9 5.2 0.00 0.00 0.00 60 1016.8
20260508184946 74 333 0.9 5.2 0.00 0.00 0.00 62 1016.7
20260508184853 74 358 0.9 5.2 0.00 0.00 0.00 62 1016.8
20260508184847 74 1 0.9 5.2 0.00 0.00 0.00 62 1016.8
20260508184746 74 298 0.9 5.2 0.00 0.00 0.00 62 1016.8
20260508184640 74 298 0.9 5.2 0.00 0.00 0.00 62 1016.8
20260508184541 73 293 0.9 5.2 0.00 0.00 0.00 61 1016.8
20260508184441 73 222 0.9 5.2 0.00 0.00 0.00 62 1016.9
20260508184353 73 211 0.9 5.2 0.00 0.00 0.00 63 1016.9
20260508184341 73 146 0.9 5.2 0.00 0.00 0.00 63 1016.9
20260508184240 73 317 0.9 5.2 0.00 0.00 0.00 63 1016.9
20260508184137 72 318 0.9 5.2 0.00 0.00 0.00 64 1017.0
20260508184036 72 317 0.9 5.2 0.00 0.00 0.00 64 1016.9
20260508183937 72 231 1.7 5.2 0.00 0.00 0.00 64 1017.0
20260508183852 71 82 1.7 5.2 0.00 0.00 0.00 64 1017.0
20260508183837 71 64 1.7 5.2 0.00 0.00 0.00 64 1017.0
20260508183737 71 164 1.7 6.1 0.00 0.00 0.00 65 1017.0
20260508183637 71 163 2.6 6.1 0.00 0.00 0.00 65 1017.0
20260508183535 71 232 2.6 7.0 0.00 0.00 0.00 65 1017.1
20260508183435 71 248 2.6 7.0 0.00 0.00 0.00 66 1017.1
20260508183353 70 248 2.6 7.0 0.00 0.00 0.00 66 1017.1
20260508183335 70 248 2.6 7.0 0.00 0.00 0.00 66 1017.0
20260508183236 70 236 2.6 7.0 0.00 0.00 0.00 66 1017.1
20260508183134 70 233 2.6 7.0 0.00 0.00 0.00 66 1017.1
20260508183035 70 217 2.6 7.0 0.00 0.00 0.00 65 1017.1
20260508182937 70 221 2.6 7.0 0.00 0.00 0.00 65 1017.1
20260508182851 70 219 2.6 7.0 0.00 0.00 0.00 66 1017.1
20260508182835 70 198 2.6 7.0 0.00 0.00 0.00 66 1017.1
20260508182734 70 214 2.6 7.0 0.00 0.00 0.00 66 1017.1
20260508182634 70 204 2.6 7.0 0.00 0.00 0.00 65 1017.1
20260508182534 70 262 2.6 6.1 0.00 0.00 0.00 66 1017.1
20260508182429 70 232 2.6 6.1 0.00 0.00 0.00 64 1017.1
20260508182349 70 236 2.6 6.1 0.00 0.00 0.00 64 1017.1
20260508182328 70 219 1.7 6.1 0.00 0.00 0.00 64 1017.1
20260508182233 70 236 1.7 6.1 0.00 0.00 0.00 65 1017.1
20260508182129 70 259 1.7 4.3 0.00 0.00 0.00 66 1017.1
20260508182028 70 253 2.6 6.1 0.00 0.00 0.00 66 1017.1
20260508181923 70 250 2.6 8.7 0.00 0.00 0.00 65 1017.1
20260508181844 70 264 2.6 8.7 0.00 0.00 0.00 65 1017.1
20260508181823 70 246 2.6 8.7 0.00 0.00 0.00 66 1017.1
20260508181723 69 215 2.6 8.7 0.00 0.00 0.00 66 1017.1
20260508181623 69 235 2.6 8.7 0.00 0.00 0.00 65 1017.1
20260508181522 69 218 2.6 8.7 0.00 0.00 0.00 66 1017.1
20260508181416 69 224 2.6 8.7 0.00 0.00 0.00 66 1017.1
20260508181338 69 143 1.7 8.7 0.00 0.00 0.00 66 1017.1
20260508181317 69 198 1.7 8.7 0.00 0.00 0.00 67 1017.1
20260508181216 69 243 1.7 8.7 0.00 0.00 0.00 65 1017.1
20260508181117 69 224 1.7 8.7 0.00 0.00 0.00 65 1017.1
20260508181016 69 190 1.7 8.7 0.00 0.00 0.00 65 1017.2
20260508180915 70 250 1.7 6.1 0.00 0.00 0.00 64 1017.2
20260508180832 70 226 1.7 6.1 0.00 0.00 0.00 65 1017.2
20260508180814 70 243 1.7 4.3 0.00 0.00 0.00 66 1017.2
20260508180715 70 238 1.7 4.3 0.00 0.00 0.00 66 1017.2
20260508180613 70 295 1.7 4.3 0.00 0.00 0.00 66 1017.1
20260508180510 69 229 1.7 4.3 0.00 0.00 0.00 66 1017.1
20260508180407 69 228 1.7 4.3 0.00 0.00 0.00 67 1017.2
20260508180326 69 266 1.7 4.3 0.00 0.00 0.00 67 1017.2
20260508180305 69 225 1.7 4.3 0.00 0.00 0.00 68 1017.2
20260508180204 69 248 1.7 4.3 0.00 0.00 0.00 68 1017.2
20260508180105 69 180 1.7 4.3 0.00 0.00 0.00 67 1017.1
20260508180005 68 229 1.7 5.2 0.00 0.00 0.00 67 1017.2
20260508175903 68 181 1.7 5.2 0.00 0.00 0.00 67 1017.1
20260508175821 68 193 1.7 5.2 0.00 0.00 0.00 68 1017.1
20260508175802 68 230 1.7 5.2 0.00 0.00 0.00 67 1017.1
20260508175700 68 224 1.7 5.2 0.00 0.00 0.00 69 1017.1
20260508175601 68 273 1.7 5.2 0.00 0.00 0.00 69 1017.1
20260508175458 68 291 2.6 5.2 0.00 0.00 0.00 69 1017.1
20260508175357 68 196 2.6 5.2 0.00 0.00 0.00 68 1017.1
20260508175315 68 139 2.6 5.2 0.00 0.00 0.00 68 1017.1
20260508175257 68 139 2.6 5.2 0.00 0.00 0.00 68 1017.1
20260508175158 68 149 2.6 6.1 0.00 0.00 0.00 68 1017.1
20260508175055 68 187 2.6 6.1 0.00 0.00 0.00 69 1017.1
20260508175025 68 233 2.6 6.1 0.00 0.00 0.00 68 1017.1
20260508174953 67 141 2.6 6.1 0.00 0.00 0.00 69 1017.1
20260508174919 68 250 2.6 6.1 0.00 0.00 0.00 68 1017.1
20260508174747 68 225 2.6 6.1 0.00 0.00 0.00 69 1017.1
20260508174647 68 230 2.6 6.1 0.00 0.00 0.00 68 1017.1
20260508174547 68 280 2.6 6.1 0.00 0.00 0.00 68 1017.1
20260508174446 68 242 2.6 6.1 0.00 0.00 0.00 69 1017.1
20260508174340 68 120 2.6 6.1 0.00 0.00 0.00 69 1017.1
20260508174302 68 139 2.6 6.1 0.00 0.00 0.00 68 1017.1
20260508174241 68 131 1.7 6.1 0.00 0.00 0.00 69 1017.1
20260508174141 68 146 1.7 6.1 0.00 0.00 0.00 69 1017.1
20260508174040 68 156 1.7 6.1 0.00 0.00 0.00 69 1017.2
20260508173941 68 125 1.7 6.1 0.00 0.00 0.00 69 1017.2
20260508173839 67 148 1.7 4.3 0.00 0.00 0.00 70 1017.2
20260508173756 67 240 1.7 4.3 0.00 0.00 0.00 69 1017.2
20260508173739 67 239 1.7 4.3 0.00 0.00 0.00 69 1017.3
20260508173639 67 239 0.9 4.3 0.00 0.00 0.00 69 1017.2
20260508173537 67 238 0.9 4.3 0.00 0.00 0.00 69 1017.3
20260508173434 67 250 1.7 4.3 0.00 0.00 0.00 70 1017.3
20260508173330 67 246 1.7 4.3 0.00 0.00 0.00 70 1017.3
20260508173250 67 16 1.7 4.3 0.00 0.00 0.00 69 1017.3
20260508173229 67 256 0.9 4.3 0.00 0.00 0.00 69 1017.3
20260508173129 67 215 0.9 4.3 0.00 0.00 0.00 69 1017.3
20260508173029 67 280 0.9 4.3 0.00 0.00 0.00 69 1017.3
20260508172928 67 228 0.9 4.3 0.00 0.00 0.00 70 1017.3
20260508172827 67 95 0.9 4.3 0.00 0.00 0.00 70 1017.3
20260508172745 67 231 0.9 4.3 0.00 0.00 0.00 70 1017.3
20260508172730 67 230 0.9 4.3 0.00 0.00 0.00 70 1017.3
20260508172627 67 231 0.9 4.3 0.00 0.00 0.00 72 1017.3
20260508172525 67 238 0.9 4.3 0.00 0.00 0.00 71 1017.3
20260508172422 66 250 0.9 4.3 0.00 0.00 0.00 72 1017.3
20260508172321 66 212 0.9 2.6 0.00 0.00 0.00 72 1017.2
20260508172221 66 238 0.9 1.7 0.00 0.00 0.00 72 1017.3
20260508172120 66 238 0.9 2.6 0.00 0.00 0.00 73 1017.3
20260508172019 66 239 0.9 5.2 0.00 0.00 0.00 73 1017.3
20260508171916 65 228 1.7 7.8 0.00 0.00 0.00 73 1017.3
20260508171817 65 228 1.7 7.8 0.00 0.00 0.00 73 1017.3
20260508171715 65 207 1.7 7.8 0.00 0.00 0.00 74 1017.3
20260508171612 65 231 1.7 7.8 0.00 0.00 0.00 73 1017.3
20260508171513 65 232 1.7 7.8 0.00 0.00 0.00 74 1017.3
20260508171410 65 233 1.7 7.8 0.00 0.00 0.00 74 1017.3
20260508171308 65 233 1.7 7.8 0.00 0.00 0.00 74 1017.3
20260508171209 65 233 1.7 7.8 0.00 0.00 0.00 73 1017.3
20260508171109 65 200 1.7 7.8 0.00 0.00 0.00 72 1017.4
20260508171006 65 223 1.7 7.8 0.00 0.00 0.00 72 1017.4